GEFSSGP_500_meanwind_186.txt.gz
Wind_Speed
2 3 4 4 4 4 3 3 2 3 2 3 4 4 5 6 7 6 7 8 8 8 8 8 8 9 9 9 9 10 10 10 11 11 11 11 11 11 10 10 9 9 9 8 8 8 8 7 7
2 2 3 3 4 3 1 2 1 1 2 2 3 3 4 5 5 6 6 7 7 7 8 8 8 8 8 9 9 9 9 10 10 10 10 10 10 10 9 9 8 8 7 7 7 7 7 6 7
1 1 2 2 2 1 1 1 0 1 1 1 2 2 3 4 4 4 5 6 7 7 7 7 7 8 8 8 9 9 9 9 9 9 9 10 9 9 9 8 8 7 7 7 7 6 6 6 6
1 1 1 2 1 0 1 1 0 1 1 1 1 1 2 3 3 3 4 5 6 7 7 7 7 7 8 9 9 9 9 9 9 9 9 9 8 8 8 8 7 6 6 6 5 5 5 4 5
3 2 0 0 1 1 1 1 1 0 1 1 1 0 1 1 1 2 3 4 6 7 7 7 7 7 7 8 9 8 8 8 8 8 8 8 8 7 7 7 6 5 5 4 4 3 3 3 3
4 3 2 2 2 2 2 2 2 1 1 1 2 2 1 1 0 2 2 4 6 7 7 7 7 7 7 8 8 8 7 8 8 8 7 7 7 6 6 6 5 5 4 4 3 3 2 2 1
5 4 4 4 4 4 3 3 3 3 2 3 3 3 3 2 1 2 3 4 6 6 7 7 7 7 7 8 8 8 8 7 8 7 7 7 6 6 6 6 5 5 4 3 3 2 2 1 1
7 6 6 6 5 5 5 4 4 4 4 4 3 4 4 3 2 2 3 4 5 6 7 7 7 7 7 8 8 8 7 8 8 7 7 6 6 7 6 6 5 5 4 3 3 2 1 1 1
9 8 8 8 7 6 6 5 5 4 4 4 4 4 4 3 3 4 4 5 6 6 7 8 8 8 8 8 8 8 8 8 8 8 7 7 6 6 7 6 6 5 4 4 3 2 2 1 1
11 10 11 10 8 7 7 6 6 6 6 5 5 5 4 4 4 4 5 6 7 7 8 8 8 9 9 9 8 8 8 8 8 8 8 7 7 6 6 6 6 5 4 4 3 3 2 2 2
13 13 12 11 9 8 8 7 7 6 6 5 5 6 5 5 4 5 5 7 7 8 8 9 9 9 10 9 9 9 8 8 8 8 8 8 7 7 7 6 6 5 5 4 4 3 3 3 3
15 15 14 13 11 9 8 8 7 7 7 7 6 6 6 6 5 5 5 7 8 9 9 10 10 9 10 10 9 8 8 8 8 8 8 8 8 8 8 7 6 6 5 5 5 4 4 4 4
16 15 15 14 13 11 10 9 9 8 8 8 7 7 7 6 6 6 6 7 8 10 11 11 10 10 11 11 10 9 9 8 9 9 9 9 8 8 8 8 7 6 6 5 5 5 5 5 5
16 16 15 15 14 13 11 10 10 9 9 9 9 9 8 7 7 7 7 8 9 10 11 12 11 11 12 12 11 10 10 9 9 9 9 9 9 9 9 9 7 7 6 6 5 5 5 5 5
17 17 17 16 16 14 12 12 11 10 10 10 9 9 9 9 8 8 9 10 10 11 12 13 13 13 13 13 12 12 11 10 10 10 10 9 9 9 9 9 9 8 7 7 6 6 5 5 5
17 17 17 17 16 15 13 12 12 11 10 10 10 10 10 10 9 9 9 10 11 12 13 13 13 14 14 14 14 14 13 12 11 11 11 10 10 10 9 10 10 9 8 8 7 7 6 6 5
18 18 18 18 17 16 14 14 14 12 11 10 10 10 10 10 11 11 10 11 11 12 13 14 14 15 15 15 15 15 14 13 12 12 12 11 11 10 10 10 10 9 9 9 9 8 8 7 6
18 18 19 19 18 16 15 14 14 13 12 11 11 11 10 11 12 12 12 12 12 13 13 14 15 14 14 14 15 14 14 14 13 13 12 12 12 12 12 11 10 10 10 10 10 9 9 8 8
20 19 19 20 18 16 15 15 14 13 13 12 12 12 11 11 12 12 12 13 13 14 14 14 14 14 15 15 15 15 15 14 14 14 14 13 13 13 12 12 11 10 10 11 10 10 9 9 8
21 20 20 20 18 17 16 15 14 13 12 12 12 12 12 12 13 12 12 12 13 13 14 15 15 15 16 16 15 14 14 15 15 14 14 14 13 13 12 12 11 10 10 11 11 10 9 9 9
21 21 21 20 18 17 16 15 15 14 13 12 12 12 12 12 13 13 13 13 12 12 13 15 15 15 15 16 15 14 13 13 13 13 14 14 14 13 13 13 12 11 11 11 11 10 10 9 9
22 22 22 20 18 17 16 14 16 15 14 13 12 12 12 12 13 13 14 13 13 13 13 14 15 14 14 15 15 13 12 13 12 13 14 14 13 13 13 13 13 12 12 11 11 11 11 10 10
23 23 22 20 19 18 16 15 16 15 14 13 13 13 13 13 12 13 14 14 14 13 13 13 15 15 14 14 15 14 13 13 13 13 14 13 13 13 13 13 13 12 12 11 11 11 12 11 11
25 23 22 21 19 19 18 17 16 17 15 14 14 14 14 13 13 13 14 14 14 14 13 13 13 14 15 15 15 15 14 14 13 13 14 14 13 13 13 14 14 13 13 12 11 11 11 12 11
26 24 22 20 20 19 19 18 17 17 16 16 16 15 14 13 13 13 13 13 13 13 13 14 14 15 15 16 16 16 15 15 14 14 15 15 14 13 13 14 13 13 13 13 12 11 11 11 11
24 24 22 19 18 19 20 18 17 17 16 16 16 15 15 14 14 14 14 14 14 14 14 14 14 15 16 16 16 16 16 16 15 14 15 15 15 15 14 14 14 13 13 12 12 12 11 11 11
25 25 23 21 19 17 18 18 17 17 17 16 16 16 15 15 14 14 15 15 15 15 15 15 15 15 15 16 17 17 17 16 16 15 14 15 15 15 15 15 14 14 13 12 12 12 11 12 12
26 24 24 22 20 17 17 17 16 16 16 16 16 16 16 15 14 14 14 15 15 15 15 16 16 15 16 16 16 17 17 17 16 16 15 16 16 16 16 15 14 14 13 13 13 12 12 12 12
27 26 24 22 21 17 14 15 16 15 15 15 15 16 16 15 15 14 15 15 16 15 15 15 15 15 14 15 16 16 17 16 16 15 15 16 16 16 16 16 15 14 14 14 14 13 13 13 13
27 25 24 23 22 19 15 15 16 15 15 15 15 15 15 15 15 15 15 14 15 15 14 14 15 15 14 14 15 16 16 16 15 16 16 16 16 16 16 16 15 15 15 15 15 14 14 14 14

GEFSSGP_500_meanwind_192.txt.gz
Wind_Speed
5 5 5 5 5 7 7 4 3 3 3 3 2 1 1 2 2 3 4 5 6 7 8 9 8 7 7 7 7 7 7 7 7 8 8 8 8 8 8 8 8 8 8 8 8 8 7 7 7
4 4 5 4 5 6 3 1 2 3 4 2 2 2 2 0 1 2 3 3 4 5 6 8 7 7 7 7 6 6 6 7 7 7 7 7 7 7 7 7 7 7 7 6 7 6 6 6 6
4 4 5 4 6 5 2 3 4 4 4 3 3 3 2 1 1 2 2 3 4 4 6 7 7 6 6 5 5 5 5 5 6 6 7 7 7 6 6 6 6 6 6 6 5 5 5 4 4
4 4 4 5 5 2 4 4 5 4 4 4 4 3 2 2 1 1 2 3 4 4 5 6 7 6 5 5 4 4 4 5 5 6 7 7 6 6 6 6 5 5 5 5 4 4 3 3 3
4 4 3 5 5 2 5 5 5 3 3 4 4 3 2 3 2 2 2 3 4 5 6 6 6 5 5 4 4 4 4 4 5 5 6 6 6 6 5 5 5 4 4 4 3 3 3 2 2
6 4 4 3 1 5 6 6 5 5 4 4 5 3 3 3 2 2 3 3 3 4 5 5 6 5 5 5 4 4 4 4 4 5 5 5 5 5 5 4 4 3 3 3 2 2 2 2 2
6 4 3 1 3 7 8 6 5 6 5 5 5 5 4 4 4 3 4 4 4 5 5 5 5 5 5 5 5 5 5 5 5 5 4 4 5 5 4 4 3 3 2 2 2 1 1 1 0
6 5 4 3 4 7 9 7 7 7 6 6 7 6 5 5 4 4 4 4 4 5 6 6 6 6 6 5 5 6 6 5 5 5 4 4 4 4 4 4 3 3 2 2 1 0 0 1 1
8 7 6 3 6 8 9 8 7 7 7 7 7 7 5 5 5 4 5 5 5 6 7 7 7 7 7 6 6 6 6 6 5 5 4 4 4 5 5 4 4 3 2 2 2 1 1 2 2
10 9 7 7 9 9 10 9 8 8 8 7 7 7 6 6 5 5 6 6 6 6 7 7 7 7 7 7 7 7 6 6 6 5 5 5 5 5 5 5 4 4 2 2 2 2 2 2 2
12 11 9 10 11 10 10 10 8 8 8 7 7 7 7 6 6 6 7 7 7 8 8 8 8 8 8 8 8 8 7 7 6 6 6 6 6 6 6 6 6 5 4 3 3 2 2 3 3
13 13 13 14 13 12 11 10 9 10 9 7 6 7 7 7 6 6 7 8 9 9 9 9 9 8 8 8 8 8 8 7 7 7 7 6 6 7 6 7 6 5 5 4 3 3 3 3 3
15 14 14 14 13 12 12 10 9 11 10 11 8 8 8 8 7 7 8 9 9 9 9 10 9 9 9 8 9 9 8 8 8 8 8 8 7 7 7 7 7 6 5 5 4 4 4 4 3
16 15 15 15 15 13 12 11 11 11 11 11 10 10 10 9 8 7 8 9 9 10 10 10 10 10 10 10 10 10 10 10 9 9 9 8 8 8 8 7 7 6 6 6 5 5 5 5 4
18 17 17 16 15 14 12 12 12 12 11 11 11 11 10 10 9 8 9 9 9 9 9 10 10 11 11 11 11 11 10 10 10 10 9 9 8 8 8 8 8 7 7 8 7 6 5 5 5
18 17 16 15 15 14 13 12 13 12 12 12 12 11 11 11 10 9 9 10 10 10 10 11 11 12 12 12 12 12 11 11 11 10 10 10 9 9 9 9 8 8 8 8 8 7 6 6 5
17 16 15 14 15 14 14 14 14 13 12 12 12 12 11 11 11 10 10 10 11 11 12 11 12 12 13 13 12 12 12 12 12 12 12 12 11 11 10 10 10 9 9 9 8 7 7 7 6
15 14 14 14 14 15 15 14 15 14 12 12 13 13 12 11 11 11 10 11 11 11 11 12 12 12 13 13 14 14 13 13 14 13 13 13 13 12 11 11 11 10 9 9 9 9 8 8 8
16 15 15 15 16 17 16 14 15 12 12 13 14 14 12 12 12 12 11 11 11 11 11 11 12 13 14 14 14 14 14 14 14 14 14 14 14 13 12 11 11 11 10 10 10 9 9 9 8
21 19 17 16 18 18 16 15 16 14 13 14 15 14 14 13 13 13 13 12 11 11 12 12 12 13 13 14 14 14 14 14 14 14 14 14 14 13 13 12 12 12 11 11 10 10 10 9 8
22 20 18 18 18 19 18 16 18 17 15 14 14 15 15 14 13 13 12 12 12 11 11 12 12 13 13 13 12 13 14 14 14 14 13 13 13 13 13 13 13 12 12 11 11 10 10 10 9
22 20 20 20 20 18 17 16 16 16 16 15 15 16 15 14 13 13 13 13 12 12 12 12 12 12 12 11 11 12 13 14 14 13 12 12 13 13 13 13 13 13 11 11 10 10 10 10 10
22 21 22 21 20 19 17 16 17 18 18 16 15 15 15 15 14 14 13 13 13 12 12 12 12 12 12 12 12 12 13 13 12 12 12 12 12 12 12 13 13 12 11 11 10 10 10 10 10
23 23 23 23 21 22 19 16 18 19 19 16 14 14 16 16 16 15 13 12 12 13 13 12 13 13 12 12 13 13 13 12 12 11 11 11 12 12 11 11 11 12 11 11 11 10 10 10 10
26 25 23 22 23 21 18 18 19 18 18 17 15 16 17 17 17 16 14 12 12 12 13 13 12 12 12 13 13 13 13 13 12 12 12 11 12 12 11 10 11 12 11 11 11 11 11 11 10
27 26 23 20 18 18 19 21 20 19 19 18 18 18 18 17 16 16 15 13 12 12 12 12 12 13 13 13 13 13 13 14 13 12 12 11 12 12 12 11 12 12 12 11 11 11 11 11 11
27 26 22 19 17 17 17 18 18 20 20 19 18 18 19 18 17 16 15 13 13 12 12 12 12 13 14 13 13 14 14 14 14 13 13 12 12 12 12 11 11 12 12 12 12 11 11 11 11
26 25 26 25 22 19 18 18 18 19 18 17 18 18 19 18 16 16 15 14 14 13 13 13 12 13 13 14 14 13 13 14 14 14 14 13 12 12 12 12 12 12 12 12 11 11 11 11 11
28 28 28 25 22 18 17 18 18 18 15 16 18 18 17 17 17 16 16 16 15 14 14 14 14 14 14 14 14 14 13 14 14 13 13 14 13 12 12 12 12 12 13 13 12 12 12 12 11
27 28 28 28 25 22 21 19 18 18 15 15 17 18 18 17 17 16 16 14 15 15 15 15 14 14 14 14 14 14 13 13 13 13 14 14 13 12 12 12 13 13 14 14 14 13 14 13 13

GEFSSGP_500_meanwind_198.txt.gz
Wind_Speed
3 3 3 4 4 6 8 10 10 9 9 9 8 8 8 7 6 6 6 6 7 8 8 9 9 9 8 8 7 6 6 6 6 5 6 6 7 7 7 7 7 7 7 7 7 7 7 7 6
3 3 3 3 4 6 7 9 9 8 8 8 8 7 6 6 6 6 5 5 6 7 7 8 8 8 7 6 6 5 5 5 4 4 5 5 6 6 6 6 5 5 6 6 6 6 6 5 5
3 3 3 4 4 5 6 8 8 9 9 8 7 7 5 5 5 5 5 5 5 6 6 7 7 7 6 6 5 5 4 4 4 3 4 4 4 5 4 4 4 4 5 5 5 5 5 5 4
3 3 3 2 3 5 7 7 7 8 8 7 7 6 5 4 5 4 4 4 5 5 5 6 6 6 5 5 4 4 4 3 3 3 3 3 3 3 3 3 3 3 4 4 4 4 4 4 4
4 3 4 3 4 5 6 6 7 9 8 6 6 6 4 4 4 3 3 3 4 4 4 5 5 5 4 4 4 3 3 2 2 2 2 2 2 2 2 2 1 2 3 3 3 3 3 3 3
5 4 4 3 2 4 6 6 6 7 6 5 5 5 4 3 3 3 3 3 3 3 4 3 4 4 3 3 3 3 2 2 1 2 1 1 1 0 0 0 1 2 1 2 2 2 2 2 2
6 5 4 5 3 3 5 5 5 5 5 5 4 4 3 3 3 2 2 2 2 3 3 2 2 3 2 2 2 2 2 1 1 1 0 0 1 1 1 1 1 1 1 1 1 2 2 2 2
8 7 6 5 3 3 4 3 4 5 5 5 5 4 3 2 3 2 1 1 2 2 2 2 3 3 2 2 1 1 0 0 0 0 0 1 1 1 1 1 1 1 1 1 1 1 1 2 2
9 9 7 5 3 3 2 2 3 5 6 7 6 5 4 2 2 1 1 1 2 3 3 3 3 3 3 3 2 1 1 1 1 0 1 1 1 1 1 1 1 1 1 1 1 1 1 1 1
11 11 9 6 4 2 1 2 3 4 6 6 6 5 4 2 2 1 1 2 2 3 3 4 4 4 4 3 3 2 1 1 1 1 1 1 2 2 2 2 2 2 2 2 2 2 1 1 1
13 12 11 8 5 3 3 4 3 4 4 5 4 4 4 2 1 1 1 2 2 2 2 3 4 5 5 5 4 4 3 2 1 1 1 2 2 3 3 3 3 2 2 2 2 2 1 2 2
15 13 13 11 7 6 6 6 5 5 5 4 3 4 4 3 2 1 1 2 2 3 3 3 4 5 5 5 5 5 4 3 3 2 2 3 3 4 4 4 4 3 3 3 2 2 2 2 3
17 15 14 12 10 9 9 8 7 6 6 5 5 5 4 4 2 1 1 2 3 4 4 3 5 5 6 5 5 5 5 4 4 4 4 4 4 4 4 4 5 4 4 3 3 3 3 3 3
18 18 16 14 12 12 11 10 9 7 7 7 5 4 5 5 4 3 2 2 3 4 5 4 5 6 6 6 6 5 5 4 5 5 5 5 5 5 5 5 5 5 5 4 4 4 4 4 4
20 19 17 16 14 13 11 10 9 8 8 7 5 4 4 5 4 3 2 2 3 5 5 5 6 7 7 6 6 6 5 5 5 6 6 6 6 5 5 6 6 5 5 5 5 5 5 4 4
21 20 18 16 15 14 13 10 10 9 9 8 6 4 4 4 5 4 3 3 4 5 5 6 6 7 7 8 7 7 7 7 6 6 7 6 6 6 5 6 6 6 7 7 7 6 6 5 5
21 19 18 16 15 14 13 10 10 10 10 9 7 5 4 4 5 5 4 4 5 5 6 6 7 8 7 8 8 8 8 8 8 8 8 8 7 7 7 6 6 6 7 7 7 7 7 6 5
21 19 18 17 15 14 13 10 10 12 10 8 7 6 5 4 5 6 5 5 6 6 7 7 8 8 8 9 9 9 9 9 9 9 8 8 8 8 7 7 7 7 7 7 7 8 7 7 6
23 22 20 18 15 14 12 12 12 12 10 9 9 8 6 6 6 7 7 7 7 7 7 8 7 8 8 9 9 9 9 9 9 9 10 9 9 9 9 9 8 8 8 8 8 8 8 7 7
24 22 20 19 16 15 14 14 13 13 13 12 10 9 8 7 7 7 8 8 8 8 8 8 9 8 8 8 9 9 10 10 9 10 10 10 9 10 10 10 10 10 10 9 9 9 8 8 8
25 22 20 18 17 17 16 16 16 14 14 13 12 10 9 8 8 8 9 9 9 8 8 8 8 8 8 8 8 8 8 9 9 9 9 10 10 11 10 10 11 11 11 11 10 9 8 8 7
24 22 21 20 19 19 19 18 16 14 14 14 12 12 10 10 9 9 9 9 9 9 8 9 9 9 8 7 7 8 8 9 9 9 9 10 10 9 10 10 11 11 11 11 11 10 9 8 8
24 24 23 22 21 22 21 21 18 17 16 15 13 12 11 10 10 10 10 9 9 9 9 9 9 9 9 8 8 8 9 9 9 9 9 9 9 9 9 10 10 11 12 11 11 11 10 9 9
26 26 26 25 24 24 22 23 21 19 16 15 14 12 12 11 10 10 10 10 9 9 10 10 10 10 10 9 9 10 10 10 10 9 9 9 9 9 9 9 9 10 10 10 10 10 10 9 9
28 28 28 28 27 25 23 24 20 17 17 16 15 13 12 11 10 10 9 9 9 9 9 10 10 11 11 10 10 10 9 10 10 10 10 9 9 9 10 10 9 9 10 10 10 10 10 10 10
27 28 28 28 27 24 24 23 19 17 18 17 16 14 13 11 10 10 10 9 9 9 9 10 11 11 11 11 11 10 10 10 10 10 10 10 10 10 10 10 10 10 10 10 10 10 10 10 10
27 28 28 27 26 25 24 22 20 19 19 19 18 15 13 12 11 10 10 9 9 9 9 10 11 11 11 11 11 10 11 11 11 11 11 11 10 10 11 10 10 11 10 10 10 11 10 11 11
27 27 29 29 28 26 24 22 20 19 19 18 16 13 12 11 11 10 9 9 10 10 10 10 11 12 12 12 11 11 11 11 11 12 12 12 11 11 12 11 12 12 11 11 11 11 11 11 12
29 30 30 30 29 27 24 22 19 17 16 16 14 13 13 11 11 10 10 9 9 10 11 11 11 12 12 12 11 11 11 11 11 11 11 11 12 12 12 12 12 12 12 12 11 12 12 11 12
29 29 30 30 29 27 25 22 19 17 16 17 15 14 13 11 11 11 10 9 9 11 11 12 12 12 13 12 11 10 10 11 10 10 11 12 12 12 12 13 13 13 13 13 12 13 13 13 13

GEFSSGP_500_meanwind_204.txt.gz
Wind_Speed
3 4 4 4 5 5 6 8 9 9 10 10 10 10 11 10 9 9 8 8 8 8 8 9 10 10 11 11 11 11 11 11 10 9 9 9 9 9 9 8 8 7 7 7 6 7 7 6 6
2 3 3 3 4 5 6 7 8 9 8 9 10 10 10 9 9 8 7 7 7 6 6 8 9 10 10 11 10 10 10 9 9 8 8 7 8 8 8 7 7 6 6 6 6 6 6 6 6
1 2 3 3 3 5 5 6 8 8 8 9 9 9 9 8 8 7 6 6 6 5 5 7 8 9 9 10 10 9 9 8 8 7 7 7 7 7 7 7 6 6 6 6 6 6 6 6 6
1 0 2 2 2 3 4 6 8 9 8 8 8 8 7 7 6 6 5 5 5 4 4 6 7 8 8 8 8 8 8 7 7 6 6 6 6 6 6 6 6 5 5 5 5 5 5 5 5
2 1 0 2 2 2 2 5 6 8 8 8 8 8 6 6 5 4 4 5 4 4 5 6 6 6 7 7 7 7 7 7 6 6 6 5 5 5 5 6 5 4 4 4 4 4 4 5 5
3 2 1 1 1 1 2 3 4 7 8 7 7 7 6 5 4 3 4 4 3 4 5 5 5 5 6 6 6 6 6 5 5 5 5 5 4 4 5 5 4 3 4 4 4 4 4 4 4
4 3 2 1 1 1 1 2 4 6 7 7 7 7 6 4 3 3 3 3 2 3 4 4 4 5 5 5 5 5 5 5 4 4 5 4 4 4 4 4 3 3 4 3 4 3 3 4 4
6 5 4 2 1 1 1 2 3 4 6 6 6 6 5 4 3 2 2 2 2 2 3 3 3 4 4 4 4 4 4 4 3 3 3 3 3 3 3 3 3 3 3 3 3 3 3 3 3
7 6 5 4 2 1 0 1 2 3 4 5 6 6 5 3 2 2 1 1 1 2 2 2 2 3 3 3 3 3 3 3 2 2 2 2 2 2 2 2 3 2 2 2 3 3 3 3 3
9 8 6 5 4 3 2 1 1 1 2 3 4 5 5 3 2 1 1 1 1 1 2 2 2 2 2 2 3 2 2 2 2 2 2 2 2 2 2 2 2 2 1 2 2 2 2 3 3
11 9 8 7 6 5 3 2 2 1 2 2 3 4 4 3 2 1 0 0 0 1 1 2 2 2 2 2 2 2 2 1 1 1 1 0 1 2 1 1 1 1 1 2 2 2 1 2 2
13 11 10 9 7 6 4 3 3 3 3 3 2 3 4 3 2 1 1 0 0 1 1 1 2 3 2 2 1 2 2 1 1 1 1 1 2 2 2 2 2 1 2 2 2 2 2 2 2
14 13 11 10 9 8 6 5 4 3 3 3 3 3 3 2 2 1 1 0 0 0 1 1 3 3 3 3 2 3 3 3 3 3 2 2 2 2 2 3 3 3 3 2 2 2 2 2 2
16 15 13 11 10 9 8 7 5 3 3 3 4 4 2 2 2 3 3 2 1 1 1 2 2 3 3 3 3 4 4 4 4 4 3 3 3 3 3 3 3 3 3 3 3 3 3 3 3
18 17 15 14 12 11 10 8 7 4 4 4 4 3 2 2 3 3 3 3 4 3 3 3 3 4 5 5 5 5 4 4 4 5 4 4 5 5 5 4 4 4 4 4 4 4 4 3 3
20 19 18 16 14 13 11 10 8 6 5 4 4 3 3 3 3 4 4 4 5 5 5 5 5 5 6 7 7 7 6 6 5 6 6 6 6 6 6 5 5 4 4 5 5 5 5 4 4
21 20 18 17 16 15 13 11 10 8 6 6 6 5 4 4 4 5 4 4 5 5 5 6 6 7 7 7 7 8 7 7 7 7 6 7 7 7 7 6 6 5 6 6 6 6 6 6 6
22 20 19 19 17 16 14 13 11 10 8 8 7 6 5 5 5 5 5 5 5 6 7 7 7 7 7 8 8 8 8 8 8 8 8 8 8 8 8 8 8 8 7 7 7 7 7 7 8
23 20 19 19 19 18 16 14 13 11 10 9 8 7 6 6 5 5 6 6 7 7 8 8 8 9 9 9 9 9 9 9 8 8 9 9 9 9 9 9 9 9 9 9 8 8 8 8 8
24 21 20 21 21 20 19 17 15 13 11 11 10 9 8 6 6 6 6 7 8 8 9 9 9 9 9 8 9 9 10 10 9 9 9 9 9 10 10 10 10 10 10 10 9 9 9 9 9
24 22 22 23 23 22 20 19 17 15 14 13 12 11 9 8 7 7 7 8 9 9 9 9 9 9 8 9 9 9 9 10 10 10 10 9 9 10 10 11 11 10 10 10 10 9 9 10 9
24 23 24 24 24 22 21 19 17 15 14 13 12 11 11 10 9 9 9 9 9 10 10 10 10 10 9 8 8 9 10 10 10 10 9 10 10 11 11 11 11 11 10 10 11 11 10 10 10
24 25 26 26 25 24 22 20 17 16 14 12 12 12 12 12 12 11 11 11 11 11 11 11 11 11 9 9 9 9 10 10 11 10 10 10 11 11 11 11 11 10 10 10 11 11 11 10 10
28 28 28 27 27 25 22 21 17 16 14 13 11 12 13 13 13 13 13 12 12 12 12 12 12 11 10 9 10 10 11 11 11 11 11 11 11 11 11 11 11 11 11 10 10 10 10 10 10
30 30 30 30 29 27 23 22 18 16 15 14 13 13 14 15 14 13 13 13 13 13 13 13 12 12 11 11 11 11 11 11 11 12 12 12 12 12 12 12 11 11 11 10 11 11 11 11 11
30 30 30 30 29 27 24 22 18 16 16 15 15 15 15 14 13 13 13 13 14 14 13 13 12 12 12 12 12 12 12 12 12 12 13 13 13 13 13 12 12 11 11 10 11 11 12 12 12
31 31 30 30 30 28 25 22 20 18 17 15 15 14 14 13 13 13 14 15 14 14 14 13 12 12 12 13 13 13 12 13 14 14 14 14 14 14 13 13 13 12 12 11 10 12 12 12 13
31 31 30 30 30 28 26 23 21 19 18 17 16 14 13 12 12 13 13 15 14 13 13 12 11 11 12 13 13 13 13 14 14 14 14 14 14 13 14 14 13 13 12 12 12 12 13 13 14
31 31 31 30 30 28 26 23 20 18 18 17 15 14 14 13 12 12 13 14 12 13 12 11 11 11 11 12 13 13 13 13 12 13 14 14 14 14 14 14 14 14 13 13 13 13 13 14 14
31 30 29 29 29 28 26 22 20 18 17 16 14 14 13 13 13 13 13 13 13 13 12 11 10 11 11 11 12 12 13 14 14 13 13 14 14 14 13 13 13 13 13 14 14 14 14 15 15

GEFSSGP_500_meanwind_210.txt.gz
Wind_Speed
8 8 9 9 10 9 7 8 8 9 9 10 10 10 11 12 12 13 13 13 12 12 12 12 12 12 12 12 12 13 13 13 12 12 12 11 11 10 10 10 9 8 8 8 7 8 7 7 6
7 8 8 9 10 6 6 7 7 7 8 8 9 10 10 10 11 12 13 13 12 11 11 11 11 11 11 11 11 11 11 11 11 11 11 10 10 9 9 9 8 7 7 7 7 7 7 6 6
6 7 7 8 7 5 5 5 6 6 6 7 9 10 9 9 10 11 12 12 12 11 10 10 10 10 10 10 10 10 10 10 10 9 10 9 9 8 8 8 7 6 7 6 6 6 6 5 5
5 6 6 6 5 4 4 4 5 5 6 7 8 9 9 9 9 10 11 11 11 10 9 9 9 9 9 9 9 9 9 9 9 8 9 8 8 7 7 7 6 6 6 6 5 5 5 5 5
4 5 5 4 4 4 4 4 4 6 6 6 7 8 8 8 9 9 9 10 10 9 9 8 8 8 8 8 8 8 8 8 8 8 8 7 7 6 6 6 5 5 5 5 5 4 4 5 4
3 4 4 2 2 3 4 4 5 5 5 6 7 8 8 8 7 7 8 8 9 8 8 8 7 7 7 7 7 7 7 7 7 7 7 7 6 6 5 5 5 5 5 4 4 4 4 4 4
3 3 3 2 2 2 3 4 4 5 5 5 6 6 7 7 7 7 7 7 7 7 7 7 6 6 6 6 6 7 7 7 7 7 6 6 5 5 4 4 4 4 4 4 3 3 3 3 3
3 3 1 1 1 2 2 3 3 4 5 4 5 6 6 6 6 6 6 6 6 6 6 5 5 5 5 5 6 6 6 6 6 6 5 5 4 3 3 3 3 3 3 3 3 3 2 3 3
4 3 3 2 2 1 2 2 2 3 3 4 4 4 5 5 5 5 5 5 5 5 4 5 5 5 4 4 5 5 5 5 5 5 4 4 3 3 2 2 2 2 2 2 2 2 2 2 2
5 5 5 4 3 1 1 2 2 2 3 3 3 3 4 4 4 4 4 4 4 4 4 4 4 4 4 4 5 5 4 4 4 4 3 3 2 1 1 1 1 1 1 1 1 1 1 1 2
6 6 6 5 4 2 1 1 1 1 2 2 2 2 3 3 3 4 4 3 3 3 3 4 4 4 4 4 4 4 4 4 3 3 2 2 2 1 1 1 1 1 1 1 1 1 1 1 1
8 7 7 6 5 4 2 2 1 0 1 2 2 2 2 2 3 3 3 3 2 2 2 3 3 4 4 4 4 4 3 3 3 2 2 2 2 2 2 2 2 2 2 2 2 2 2 1 1
10 8 8 7 6 5 4 3 2 1 0 1 2 0 1 1 2 2 2 2 1 2 2 2 3 4 4 4 4 3 3 3 3 3 2 2 2 2 2 3 3 3 3 3 3 3 3 2 1
11 10 9 8 7 6 5 4 3 2 2 2 1 1 0 0 0 1 1 1 1 1 2 2 3 4 4 4 3 3 3 4 4 3 3 3 3 3 3 4 4 4 3 3 3 3 3 3 2
12 11 10 9 9 8 6 5 5 4 4 3 2 1 1 1 1 1 1 2 2 2 3 3 3 4 4 4 4 4 4 5 5 5 4 4 4 3 4 4 4 4 4 4 4 4 4 4 3
14 13 12 11 10 9 7 7 7 6 5 4 3 2 2 3 2 2 2 3 3 3 4 4 4 5 5 5 5 5 5 5 6 6 6 5 5 5 5 5 5 5 5 4 4 4 4 4 4
16 14 14 13 12 11 9 9 9 7 6 5 4 4 3 3 3 3 3 4 4 5 5 5 6 6 6 7 6 6 7 7 7 7 7 7 7 6 6 6 5 5 5 5 5 5 5 5 5
17 16 16 15 13 12 11 11 10 9 9 8 7 6 5 4 4 4 4 5 5 6 7 7 7 7 7 7 7 8 8 9 8 8 8 8 8 8 8 7 7 6 6 6 6 6 6 6 6
19 18 17 17 15 14 13 12 11 10 10 9 8 7 6 5 5 5 6 6 6 7 7 7 7 8 8 8 9 9 9 9 9 9 10 9 9 9 9 9 8 8 8 8 8 7 7 7 7
20 19 19 18 16 15 14 14 13 11 11 10 9 9 8 7 6 6 7 8 8 8 8 8 9 8 8 9 10 10 10 10 10 10 10 10 9 9 9 9 9 9 10 10 9 9 9 8 8
21 21 20 19 17 16 15 14 14 13 12 12 11 10 10 9 8 8 8 9 9 9 9 9 10 9 9 9 10 10 10 10 10 9 9 10 9 9 9 9 10 10 10 10 10 10 9 9 8
22 22 21 19 17 17 16 14 15 15 14 14 13 13 12 11 11 10 10 10 10 10 11 11 11 11 10 10 10 10 10 10 9 9 9 9 10 10 10 11 10 10 10 10 10 10 10 10 9
24 23 22 20 19 18 16 15 16 15 14 14 14 14 13 12 12 12 12 11 11 12 12 12 12 12 12 11 11 11 10 10 10 9 9 9 10 10 10 10 10 10 10 10 10 10 11 10 9
25 23 22 21 20 19 17 15 15 15 14 15 15 14 14 13 13 13 13 12 12 12 12 13 13 13 13 12 12 12 11 11 11 11 10 10 11 11 11 10 10 10 10 10 10 10 10 11 10
26 24 22 21 21 19 18 17 16 15 14 15 14 14 14 13 13 14 13 13 13 12 13 13 13 13 13 12 12 11 12 12 12 12 12 11 11 11 11 10 10 10 10 11 12 12 11 11 11
25 25 23 21 19 19 20 18 16 14 14 14 15 14 14 14 14 15 14 14 13 14 14 14 13 13 13 13 13 13 13 13 14 13 13 12 13 13 12 11 11 11 11 12 12 12 11 10 11
27 27 25 23 21 19 19 18 16 15 15 15 14 14 14 14 14 14 14 13 13 14 13 13 13 13 13 13 13 13 13 14 14 14 13 14 13 13 13 13 12 12 13 13 13 12 11 11 11
28 26 26 24 22 20 19 18 17 16 16 16 15 14 14 14 13 13 14 13 13 13 12 12 12 12 12 12 12 12 13 14 14 14 14 14 14 14 14 13 13 13 14 14 13 12 12 12 12
28 28 27 25 23 20 17 18 19 17 16 16 16 15 14 14 13 13 13 13 13 12 12 12 12 12 12 12 12 12 12 13 14 14 14 13 14 14 13 13 14 13 13 13 12 12 13 13 13
27 27 26 25 25 22 18 18 19 17 17 17 16 16 15 14 14 14 13 13 13 12 12 12 13 13 12 12 12 12 13 13 13 14 14 13 13 14 14 13 14 13 13 13 13 14 13 14 14

GEFSSGP_500_meanwind_216.txt.gz
Wind_Speed
13 12 12 13 16 14 9 7 7 8 7 7 6 6 7 7 7 8 9 10 10 10 11 10 10 9 9 9 9 9 9 8 8 8 8 8 8 7 7 7 7 7 7 7 7 8 7 7 7
13 10 11 14 14 11 8 7 7 7 7 6 6 6 6 6 7 8 8 10 10 10 9 9 8 8 8 8 8 8 7 7 7 7 7 7 7 7 7 7 6 6 6 6 6 7 7 6 6
11 10 12 13 10 7 6 6 6 7 7 6 5 5 5 5 6 7 8 9 9 9 9 8 8 7 6 6 6 6 6 6 6 5 6 6 6 6 6 7 6 6 6 6 6 6 6 6 5
10 11 14 11 6 5 6 6 6 6 6 5 5 3 4 5 5 6 7 8 9 8 8 8 7 6 6 5 5 5 5 5 5 5 5 5 5 5 6 6 6 6 5 5 5 5 5 5 5
8 11 11 6 4 4 4 5 5 5 6 6 4 3 3 4 4 5 6 7 7 8 7 7 6 6 5 4 4 4 3 3 4 4 4 4 5 5 4 5 5 5 5 5 4 4 4 4 4
8 10 7 2 2 4 4 4 4 4 5 5 4 3 3 3 3 4 4 5 6 6 7 6 5 4 4 3 3 3 2 2 3 3 3 4 4 4 5 5 5 5 5 5 4 4 4 4 4
7 7 5 1 3 4 3 3 4 4 5 5 4 3 2 2 3 3 4 4 5 5 5 5 5 4 3 3 3 3 2 2 2 2 3 4 4 4 5 5 5 5 4 4 4 4 4 4 4
6 7 5 1 3 3 3 2 2 3 3 3 4 3 2 1 2 3 3 3 3 4 4 4 4 3 3 2 3 3 2 2 2 2 3 3 4 4 4 4 4 4 4 4 4 4 4 4 4
5 6 4 2 4 3 3 2 2 2 3 4 4 4 3 1 1 1 2 2 2 3 3 3 2 2 2 2 2 2 1 1 1 1 2 2 3 3 4 4 4 4 4 4 4 3 3 3 3
5 4 2 2 4 1 2 2 2 2 3 4 4 4 4 2 0 0 1 2 1 1 1 1 1 1 0 0 1 1 0 0 1 1 2 3 3 3 3 3 4 4 4 3 3 3 3 3 3
5 3 3 5 6 2 2 2 2 2 3 4 4 4 4 2 1 1 0 0 0 0 1 0 1 1 1 1 1 1 1 1 1 2 3 3 3 3 3 4 4 4 4 3 3 4 3 3 2
6 7 6 6 6 4 3 2 2 3 3 4 4 4 4 2 1 1 0 1 1 0 0 0 1 1 2 2 2 2 2 2 2 3 3 4 4 4 4 4 4 4 4 4 4 4 4 3 3
8 8 8 8 6 5 3 3 2 2 4 5 5 5 3 2 2 2 1 1 1 1 1 1 1 2 2 2 3 3 2 3 4 4 4 4 5 4 4 4 4 4 4 4 5 5 4 3 3
10 9 9 8 8 6 4 4 4 3 4 5 5 5 4 4 3 2 2 2 2 1 2 2 2 2 3 3 3 3 3 4 4 5 5 5 5 5 5 5 5 5 5 5 5 5 5 4 3
12 11 9 8 8 6 6 6 5 4 5 5 5 5 4 4 4 3 3 3 3 2 2 3 3 3 4 5 5 5 4 5 5 5 6 6 6 6 6 6 6 6 6 5 5 5 5 5 5
11 11 9 8 8 9 8 8 5 4 5 6 5 5 5 4 4 4 4 4 3 3 3 3 4 5 5 6 6 6 6 6 6 7 7 7 7 7 7 7 7 7 7 6 6 6 5 5 5
11 10 10 10 10 9 8 7 6 5 6 6 6 6 6 5 4 4 4 4 4 4 4 4 5 6 7 6 7 7 7 7 7 8 8 8 8 8 8 8 8 8 7 6 6 6 6 6 6
11 11 11 10 11 10 9 8 7 7 8 7 7 6 6 5 5 5 5 5 4 5 6 6 7 7 8 7 8 8 8 8 8 8 9 9 10 9 9 9 9 9 8 7 7 7 7 7 7
15 13 12 11 13 13 11 11 9 9 9 9 8 7 7 6 6 6 6 6 6 6 7 7 8 8 8 8 9 9 9 10 10 9 10 9 10 10 9 9 9 8 8 8 8 8 8 8 8
17 15 14 13 15 14 12 11 12 11 10 11 10 9 8 8 7 6 7 7 7 7 8 8 9 9 9 9 10 10 10 11 11 10 10 9 9 9 8 8 9 9 9 8 8 8 8 8 7
18 17 16 15 15 15 13 12 13 12 11 12 12 11 11 9 9 8 8 8 8 8 8 9 9 9 9 10 10 10 10 10 10 10 10 9 9 9 9 9 9 9 9 9 8 8 8 8 7
19 18 18 17 17 16 14 15 15 15 14 14 14 13 12 11 10 9 9 9 9 9 9 9 9 9 10 10 10 10 11 11 10 10 10 9 9 9 9 10 10 10 9 9 9 8 8 8 8
21 20 20 18 18 17 14 15 15 15 15 14 14 14 13 12 12 11 10 10 10 10 10 10 10 10 11 11 11 11 11 11 11 10 10 9 10 10 10 11 10 10 10 10 9 9 9 9 9
22 21 20 19 18 19 17 16 16 17 17 15 15 16 16 12 12 12 11 11 12 12 11 11 11 11 11 11 11 12 12 12 11 11 11 10 10 10 10 10 10 10 10 10 9 10 10 10 10
24 22 19 18 18 18 16 17 19 17 16 15 16 15 15 12 13 13 12 12 13 13 13 12 12 12 12 12 12 12 13 12 11 11 11 11 11 11 10 10 10 10 10 10 10 11 11 11 11
25 23 20 18 16 16 16 18 19 18 16 14 14 15 15 14 14 14 13 12 14 14 13 12 12 12 13 13 13 13 13 12 11 11 11 12 12 11 10 11 11 11 11 11 11 12 12 12 12
25 24 20 17 15 15 17 17 17 19 18 16 16 16 16 14 14 15 14 12 13 14 14 13 13 13 12 13 12 13 12 11 11 11 11 12 12 11 11 12 11 11 11 11 12 12 12 11 12
24 23 24 24 21 18 16 17 17 18 18 18 17 17 16 15 15 15 14 13 13 14 14 14 14 13 13 13 12 12 11 11 11 11 11 12 12 12 12 12 12 12 11 12 13 12 12 11 11
25 25 25 24 22 19 17 19 19 20 17 17 17 16 16 16 15 15 15 14 14 13 13 14 13 12 12 12 12 12 11 11 12 12 12 12 12 12 12 12 12 12 12 12 12 12 12 12 12
24 25 26 25 24 23 20 18 16 16 15 17 18 18 17 16 15 15 15 14 14 13 14 14 13 12 12 12 12 12 12 12 13 13 13 13 13 12 12 12 12 13 13 12 12 12 13 13 12

GEFSSGP_500_meanwind_222.txt.gz
Wind_Speed
11 11 11 11 13 14 15 16 16 14 13 13 12 11 11 9 10 10 10 10 11 12 12 11 10 10 10 10 9 9 8 8 8 8 8 8 8 8 7 7 6 7 6 6 6 6 7 6 6
10 11 10 11 13 13 14 15 14 13 13 12 11 10 10 9 9 10 10 9 10 10 10 10 9 9 9 8 8 8 7 7 7 8 8 7 7 7 7 7 6 6 6 6 6 6 6 6 6
8 8 9 11 13 13 13 14 13 13 13 12 11 10 9 8 9 9 9 9 9 9 9 9 9 9 9 8 7 7 7 6 6 7 7 7 7 7 6 6 6 6 6 6 6 6 6 6 5
7 7 7 9 11 12 12 13 13 13 13 12 11 10 9 9 9 8 8 8 8 8 8 8 8 8 8 7 6 6 6 6 6 6 6 6 6 6 6 6 6 6 6 6 6 6 6 5 5
4 6 7 9 11 10 10 12 12 13 12 11 11 10 9 9 8 8 8 7 8 8 8 8 8 7 7 6 6 6 5 5 5 6 6 5 5 6 6 6 6 6 6 6 6 5 5 5 5
3 5 6 8 9 9 10 11 12 11 10 10 10 10 9 8 7 7 7 7 7 7 7 7 7 7 6 5 5 6 6 6 6 6 5 6 6 6 5 5 6 5 5 6 5 5 5 4 4
3 3 5 7 7 7 9 10 10 10 9 9 9 9 9 8 7 7 7 7 7 7 7 6 7 6 6 5 5 5 6 5 5 5 5 5 6 5 5 5 6 6 5 5 5 5 5 5 5
5 3 4 5 7 6 7 8 8 9 9 9 9 9 9 8 8 7 6 7 6 6 5 5 6 5 5 5 5 4 4 4 4 5 5 5 6 6 5 5 5 5 5 5 5 5 4 4 4
4 3 3 4 5 5 5 6 7 8 8 8 9 8 8 8 8 7 6 5 5 5 4 4 5 4 5 5 5 4 4 4 4 4 5 5 5 5 5 5 4 4 4 5 4 4 4 3 3
4 3 3 2 3 3 4 5 6 7 8 8 8 8 7 7 7 6 5 4 4 4 4 3 4 4 4 4 4 4 3 3 4 4 4 4 4 4 4 4 4 4 5 5 5 4 4 3 3
5 4 2 2 2 3 3 4 5 6 7 7 7 7 7 6 5 5 4 3 3 3 3 3 3 3 3 3 3 3 3 3 3 3 4 3 3 4 4 4 4 4 4 5 5 4 4 3 2
8 6 3 1 2 2 2 2 3 5 5 6 7 7 7 7 5 4 4 3 3 3 3 3 3 3 4 3 3 2 2 3 3 3 4 3 3 3 3 4 4 4 4 4 4 4 4 3 3
10 7 5 4 2 2 1 1 2 4 4 5 6 7 7 6 5 4 3 3 3 3 3 3 2 3 4 3 3 2 3 2 2 3 3 3 3 3 3 3 3 4 4 4 4 4 4 4 3
11 9 7 5 3 2 0 1 1 2 4 5 5 6 6 6 5 5 4 4 3 3 3 3 4 4 4 4 3 3 3 3 3 2 3 3 3 3 3 3 4 4 4 4 4 4 4 4 4
11 9 8 5 4 3 1 1 2 3 4 5 5 5 5 5 5 5 4 4 4 4 3 3 4 4 4 4 3 3 3 3 3 3 3 3 3 3 4 4 4 4 4 4 4 4 4 4 3
12 10 8 6 5 5 4 2 2 3 4 4 5 5 5 5 5 5 4 4 4 4 4 3 2 3 4 4 3 3 3 3 4 4 4 4 4 4 5 5 5 4 4 4 4 4 5 5 4
13 10 9 8 6 6 5 3 2 3 3 4 4 4 4 4 4 4 3 4 4 4 4 3 3 3 3 4 4 4 4 4 5 5 5 5 5 5 5 5 5 5 5 4 5 5 5 4 4
14 13 11 9 8 7 6 4 4 3 3 3 3 3 4 4 4 3 3 2 3 3 4 3 3 3 3 4 4 4 5 5 5 6 6 6 5 6 5 5 5 5 5 5 5 5 5 4 5
17 15 13 11 10 9 8 6 6 5 4 3 4 3 3 4 4 5 4 3 2 2 3 4 4 4 4 5 5 5 5 5 5 6 5 5 5 5 4 5 5 5 5 5 6 6 5 5 5
18 16 14 12 11 10 10 9 8 7 6 5 5 4 4 4 4 5 5 4 3 3 4 4 5 5 5 5 6 5 5 5 6 6 6 5 5 5 5 5 6 6 6 6 6 6 5 5 5
19 16 15 14 13 12 11 11 9 9 8 7 7 7 6 5 4 5 5 5 5 4 5 5 6 6 6 7 7 6 7 7 7 7 6 6 6 6 6 6 6 7 7 6 5 5 5 5 5
19 18 18 16 15 14 13 12 11 10 10 9 9 10 9 7 6 6 6 5 5 5 6 6 6 6 7 7 7 7 7 7 8 8 8 7 7 7 8 8 7 8 8 6 6 5 5 5 5
20 18 18 17 17 17 16 15 12 12 12 11 10 10 9 7 7 7 7 6 6 5 6 6 6 6 7 7 7 7 8 9 8 9 9 8 8 8 8 8 8 8 7 6 6 5 6 6 6
22 21 20 20 19 19 17 17 15 14 13 12 11 10 8 7 8 8 8 7 7 7 7 6 6 6 7 8 8 8 9 9 9 9 10 9 8 8 8 9 8 8 7 7 7 7 7 7 7
24 24 23 23 22 18 17 19 17 15 14 13 13 12 10 9 9 9 8 8 8 7 7 8 8 8 8 9 8 8 9 9 9 9 10 9 9 9 9 9 9 9 8 8 7 7 8 8 8
25 25 24 24 22 19 19 20 17 15 14 14 13 12 11 10 9 9 9 8 8 8 8 9 9 9 9 9 9 9 9 9 9 8 8 9 9 9 10 9 9 9 9 9 8 8 9 8 8
26 27 25 24 22 20 19 18 17 16 16 16 16 14 12 11 10 10 9 9 9 10 10 10 10 10 10 10 9 9 9 9 9 9 9 9 9 9 9 9 10 10 9 9 9 9 9 9 9
26 26 26 26 24 22 20 18 14 14 16 16 16 14 13 13 11 12 10 10 10 10 10 11 10 10 10 10 10 10 9 9 9 9 9 10 10 10 10 9 9 8 8 9 9 9 9 10 10
26 27 27 27 26 24 21 18 15 14 15 15 16 16 14 14 13 11 11 10 11 10 11 11 11 11 9 9 10 11 10 10 9 9 9 10 11 11 10 9 8 8 8 9 9 9 10 10 10
26 27 27 27 27 26 24 20 17 16 16 16 17 16 15 14 13 13 12 11 12 11 11 11 11 10 9 9 10 10 10 9 9 10 10 11 11 11 10 9 8 9 9 10 10 10 10 11 11

GEFSSGP_500_meanwind_228.txt.gz
Wind_Speed
11 11 12 13 14 13 14 16 17 15 15 14 13 13 12 12 12 12 12 11 11 11 11 11 12 12 12 12 12 12 11 11 11 11 10 10 10 9 9 9 9 8 7 7 7 6 6 6 6
10 10 11 12 13 13 14 16 17 16 14 13 13 12 12 12 12 12 11 10 10 10 10 11 11 11 11 11 11 11 10 10 10 10 10 10 10 9 9 8 8 7 7 7 6 6 6 6 6
8 8 9 10 12 13 14 15 16 15 14 13 12 12 12 12 12 11 10 10 9 9 9 10 10 10 10 10 10 10 10 10 10 10 9 9 9 9 9 8 7 7 7 6 6 6 6 6 6
7 7 8 9 11 13 14 15 15 15 14 12 11 12 11 11 10 10 9 9 8 8 9 9 9 9 9 9 9 9 9 9 9 9 9 9 9 9 8 8 8 7 6 6 6 6 6 6 6
6 7 8 8 9 11 13 14 14 14 14 12 11 11 11 10 9 9 9 8 7 8 8 9 9 9 9 8 8 9 9 9 9 9 9 9 8 8 8 8 8 7 6 6 6 6 6 5 5
5 6 7 8 8 10 11 13 14 14 13 12 11 11 11 9 9 8 8 8 7 8 8 8 9 9 8 8 8 8 8 8 8 8 8 8 8 8 8 8 8 8 7 6 6 5 5 4 4
4 5 6 7 8 9 11 12 13 12 12 11 11 10 10 9 8 7 8 7 7 8 7 8 8 8 8 8 8 7 7 7 7 7 7 8 8 7 8 8 7 7 7 6 6 5 5 4 4
2 3 5 7 8 9 10 12 12 12 11 10 10 9 9 8 7 7 7 7 6 7 7 7 7 7 8 7 7 6 6 5 5 6 6 7 7 7 7 7 7 7 6 6 6 5 5 5 4
1 3 4 5 7 8 8 10 11 10 10 9 9 9 8 7 6 6 6 6 6 6 6 6 6 7 7 6 6 5 5 5 5 5 5 6 6 5 6 6 6 6 6 6 5 5 5 4 4
1 1 3 4 6 7 7 9 9 9 9 9 8 8 8 7 6 5 5 6 6 6 6 6 5 6 6 5 5 5 4 4 4 4 4 5 5 4 4 5 5 5 5 5 5 5 5 5 4
3 1 2 3 4 5 6 7 8 9 9 8 8 7 7 7 6 5 5 5 5 5 5 5 4 4 4 4 4 4 4 4 4 3 4 4 4 4 4 4 4 4 4 4 5 5 5 5 4
5 3 2 2 3 4 5 7 8 8 8 8 7 7 7 6 5 4 4 4 4 4 4 4 4 4 3 3 4 4 4 4 3 2 3 3 4 4 5 5 4 4 4 4 4 4 5 4 4
5 4 3 2 2 3 4 5 7 7 7 7 7 6 7 6 5 5 4 4 4 4 4 4 4 4 4 4 4 4 4 4 3 2 2 3 3 4 4 4 4 4 4 4 5 4 4 5 5
5 5 4 3 2 1 2 4 5 6 7 6 6 6 6 6 4 5 5 4 4 4 4 4 4 4 4 4 4 4 4 4 3 3 3 3 3 4 5 5 5 5 5 5 5 5 5 5 5
7 6 6 5 4 2 1 2 3 5 5 5 6 6 5 5 5 4 4 4 4 4 3 3 4 4 4 4 4 4 4 3 3 3 3 3 3 4 5 5 5 5 5 5 5 5 5 5 5
9 8 8 7 6 4 2 1 1 3 4 4 5 5 5 5 4 4 5 4 4 4 4 3 3 3 3 3 3 3 4 4 4 4 4 4 4 4 5 5 6 6 6 6 6 6 6 5 5
11 10 10 8 7 6 4 3 1 1 2 3 4 5 5 5 4 4 5 4 3 3 3 3 3 3 3 3 3 3 4 4 4 4 4 4 5 5 6 6 6 6 6 6 6 6 6 6 5
12 11 11 10 8 7 6 4 2 2 3 3 3 4 4 5 5 5 5 5 4 3 2 2 3 3 4 4 3 3 4 4 4 5 5 5 5 5 5 6 6 7 6 6 6 6 6 6 5
15 14 13 11 10 8 7 6 4 3 3 4 4 4 4 4 4 5 6 6 5 4 4 4 4 5 5 4 3 4 4 4 5 5 5 5 5 5 6 6 7 7 6 6 7 7 7 6 5
18 16 14 13 12 11 9 7 6 5 4 4 4 4 4 3 3 5 5 5 6 5 6 5 5 6 7 5 4 4 4 5 6 5 5 6 6 6 6 7 7 7 6 7 7 7 6 6 5
19 17 16 15 13 13 11 9 7 6 5 4 5 5 5 5 4 4 5 6 5 5 5 6 7 7 7 6 4 4 4 5 6 7 7 7 7 8 8 8 8 8 8 8 7 6 6 6 6
20 18 18 17 16 14 12 10 8 7 6 6 6 6 6 6 5 5 6 6 6 6 6 7 7 6 6 5 5 5 5 6 7 7 8 9 9 9 9 9 9 9 8 8 7 7 7 7 6
22 21 19 18 18 16 15 13 9 8 7 6 7 7 7 7 7 7 7 7 7 6 6 7 6 5 5 5 6 6 6 7 8 8 9 10 10 10 9 10 10 9 9 8 8 8 8 8 8
23 23 22 20 19 18 16 14 11 9 8 7 7 8 8 9 9 8 7 7 7 7 6 7 7 6 6 6 7 7 7 7 8 9 10 10 10 10 10 9 9 9 9 8 8 8 8 8 8
25 24 23 23 22 20 17 16 12 10 10 9 9 8 9 9 9 8 8 8 8 7 8 8 7 7 7 7 7 7 7 8 8 9 9 10 10 10 10 9 9 9 9 9 8 8 8 9 9
25 25 24 24 23 21 19 18 14 13 12 11 11 10 9 8 7 8 8 9 9 9 9 9 8 8 8 9 10 9 9 9 9 9 9 9 10 10 11 10 10 10 10 9 8 9 10 10 10
27 26 25 25 24 23 21 18 15 14 14 14 12 11 10 9 9 9 10 10 10 11 10 10 10 9 9 10 10 10 10 11 11 10 10 10 10 11 11 11 11 10 10 9 10 10 10 10 11
27 26 27 26 25 24 21 19 16 15 14 15 13 12 10 9 10 11 12 12 11 11 11 11 10 10 10 10 11 11 11 12 12 11 11 11 12 12 12 11 11 11 10 10 10 10 11 11 12
27 27 27 27 27 25 23 21 17 16 15 15 14 13 11 11 11 11 11 12 12 12 12 12 12 12 11 11 11 12 12 12 12 11 12 12 12 12 13 12 12 12 11 11 11 11 12 12 13
28 27 27 27 27 26 25 22 19 18 17 17 16 15 13 12 12 11 13 12 12 11 12 13 13 13 12 12 11 12 12 12 12 12 13 13 13 13 13 12 13 13 13 13 13 13 13 13 14

GEFSSGP_500_meanwind_234.txt.gz
Wind_Speed
14 14 15 15 15 13 12 14 13 14 14 14 14 14 14 14 14 15 14 14 13 13 12 11 11 11 11 11 11 11 11 12 12 11 11 10 10 9 9 8 9 8 8 7 6 6 7 7 6
13 13 14 14 14 11 12 12 13 14 14 14 14 14 14 14 14 14 14 13 12 12 12 11 11 10 10 10 10 11 11 11 11 11 11 10 9 9 9 8 8 7 7 7 7 6 7 7 6
12 13 13 13 12 11 11 12 13 13 14 14 14 14 13 13 14 13 13 13 12 12 11 10 10 9 9 9 9 10 10 10 10 10 10 9 9 8 8 7 7 7 7 6 6 6 7 6 6
11 12 12 12 11 11 11 12 12 13 13 13 14 13 12 13 13 12 12 12 11 11 10 10 10 9 9 8 9 9 9 9 9 10 9 9 8 8 7 7 7 6 6 6 6 6 6 6 5
10 11 11 10 10 11 11 11 12 13 12 12 12 13 12 12 11 11 11 11 10 10 10 9 9 9 9 8 8 8 8 8 8 8 8 8 8 7 7 7 6 6 6 5 5 5 5 5 5
10 10 10 9 9 10 10 10 11 12 11 11 11 11 11 11 11 10 9 9 9 8 8 8 7 7 8 8 7 7 7 7 7 7 7 7 7 7 7 7 7 6 6 6 6 5 5 5 5
9 9 9 8 8 9 9 10 10 11 11 10 10 10 11 11 10 9 9 8 7 7 7 6 6 6 7 7 6 6 6 5 5 6 7 6 6 7 7 6 6 5 5 5 5 5 5 5 4
8 8 7 7 8 8 9 9 10 11 10 10 9 9 9 10 9 8 8 7 7 6 6 5 5 5 6 7 6 6 5 4 4 5 6 6 5 5 6 5 5 5 5 5 5 5 5 5 4
6 7 5 6 8 8 8 9 9 10 9 9 9 8 8 8 8 7 7 6 6 6 5 5 4 5 5 5 5 5 4 3 4 4 5 5 4 4 5 5 4 5 5 5 5 5 5 4 3
5 5 5 5 6 7 8 8 8 9 9 9 8 7 7 7 6 6 5 5 5 5 5 4 3 4 4 4 4 3 3 3 3 3 4 3 4 4 4 5 5 4 4 4 4 4 4 3 3
4 4 4 4 5 6 7 7 8 8 9 9 7 6 6 6 6 5 5 4 4 4 3 3 3 3 3 3 3 3 3 3 3 3 3 3 3 4 4 4 5 4 4 4 4 4 3 3 2
3 3 3 3 4 4 5 6 7 7 8 7 7 6 6 6 5 5 4 3 3 3 3 3 3 2 2 2 2 3 3 3 3 3 2 2 2 3 3 4 4 3 3 3 3 3 3 2 2
4 3 3 3 3 3 4 5 6 6 7 6 6 6 6 6 5 5 4 3 3 3 3 2 2 2 2 2 3 3 3 3 3 3 2 2 2 2 3 4 4 3 2 3 3 3 2 1 1
5 4 4 3 2 2 3 4 5 5 5 5 5 5 6 6 5 4 3 3 3 2 2 3 2 2 2 2 3 3 3 3 3 3 2 2 2 2 3 3 3 3 2 2 3 3 3 2 1
5 5 4 4 3 2 3 3 4 4 5 5 5 4 5 5 5 4 3 3 2 2 2 2 2 2 3 2 3 3 4 4 3 3 3 2 2 2 2 3 2 2 2 2 3 3 3 2 2
6 5 5 5 4 3 3 2 2 3 4 4 4 4 4 4 4 4 3 3 2 2 1 1 2 2 2 3 3 3 4 4 3 3 3 3 3 2 3 3 3 3 3 4 4 4 4 4 4
8 7 7 6 5 4 2 2 1 1 2 3 3 3 4 3 4 3 3 2 2 2 2 2 2 2 2 3 3 4 4 5 5 4 4 4 3 3 3 4 4 4 4 5 5 5 5 5 5
10 9 8 7 6 5 4 4 3 1 1 2 2 3 3 3 3 3 3 3 3 3 4 3 4 3 3 3 4 4 5 5 5 4 4 4 4 4 4 4 5 6 6 6 7 6 6 6 6
13 11 10 10 8 7 6 5 4 3 2 2 2 2 3 4 4 3 3 3 3 4 5 6 5 4 4 3 4 5 5 5 5 5 5 5 5 4 5 5 6 6 7 7 7 6 6 6 5
15 13 12 12 10 9 7 7 6 4 4 4 4 4 4 4 4 4 4 4 4 5 6 6 5 5 5 4 5 6 6 6 6 5 5 6 6 6 6 6 6 6 7 7 7 6 6 5 5
17 15 15 14 12 11 10 9 7 6 6 6 5 5 5 5 5 5 6 5 5 6 6 6 6 6 6 5 6 6 6 6 6 5 5 6 7 8 8 7 7 7 7 7 6 6 5 5 5
18 17 17 16 13 12 11 9 9 7 7 7 7 6 6 6 6 7 7 6 6 6 6 7 7 6 6 6 6 7 7 6 6 6 7 8 9 10 9 8 7 8 7 7 7 6 6 6 6
20 19 18 16 15 14 12 10 10 9 8 7 7 7 6 6 6 7 6 6 6 6 6 7 7 7 7 7 7 8 7 7 8 8 8 9 9 10 9 8 8 8 7 7 7 7 7 7 6
20 19 18 17 16 16 14 11 10 10 8 8 8 7 6 5 6 6 5 6 6 7 7 7 7 8 8 8 8 8 8 8 9 10 10 10 10 10 9 9 9 8 8 8 8 8 8 7 7
21 19 18 17 18 17 15 14 13 11 9 8 8 7 7 6 6 5 5 6 7 7 8 8 8 8 9 9 9 9 9 9 9 11 11 11 10 9 9 9 9 9 8 9 9 9 8 8 8
22 21 19 17 16 15 17 15 14 13 11 10 9 8 8 7 7 7 7 7 8 8 8 9 10 9 9 9 9 9 9 9 10 10 11 11 10 10 10 10 10 10 9 9 9 9 9 10 10
23 23 21 19 18 16 16 16 15 14 13 12 11 10 10 9 9 9 9 9 9 9 9 10 10 9 9 9 9 9 10 10 11 11 11 10 10 10 11 11 11 11 10 10 10 11 11 11 11
24 23 22 21 19 16 16 15 15 15 13 13 13 12 11 11 10 10 9 10 10 10 11 11 10 10 10 10 10 10 11 11 11 11 11 12 11 11 11 12 12 12 11 12 11 11 11 11 12
25 24 23 21 20 17 15 16 16 15 14 14 13 12 12 11 11 10 10 11 11 11 12 11 12 12 12 12 12 12 11 12 12 12 12 12 12 12 12 13 13 12 12 12 11 11 11 11 12
25 24 23 21 21 19 16 16 17 16 16 15 15 14 13 13 12 12 12 12 13 13 13 13 13 13 13 13 13 13 12 12 12 12 12 13 13 13 13 13 13 13 12 11 11 11 11 11 12

GEFSSGP_500_meanwind_240.txt.gz
Wind_Speed
17 17 17 18 15 11 10 9 9 8 8 8 8 8 8 9 9 10 10 11 10 10 10 9 9 8 8 8 8 8 8 7 7 7 7 7 7 7 7 6 6 6 6 5 6 5 6 6 6
16 15 17 16 12 10 10 9 8 7 7 8 8 8 8 8 9 9 10 10 9 9 9 8 8 8 8 7 7 7 7 7 7 7 7 6 7 6 6 6 6 5 5 5 5 5 5 5 5
15 15 17 12 8 9 9 9 8 7 7 7 8 8 8 8 9 9 9 9 9 8 8 7 7 7 7 7 6 6 6 6 6 6 6 6 6 5 5 5 5 6 5 5 5 5 5 5 5
14 17 14 10 8 9 9 8 7 7 7 7 7 7 8 8 8 8 8 8 8 8 7 7 6 7 7 7 6 6 6 6 6 6 6 6 6 5 6 6 6 5 5 5 5 5 5 5 4
14 16 10 7 8 8 8 8 7 7 7 7 7 6 7 8 8 8 8 7 7 7 7 6 6 6 6 6 6 6 6 6 6 6 6 6 6 6 6 6 6 6 6 5 5 4 4 4 4
14 11 7 7 7 7 7 7 7 7 6 6 6 6 6 7 7 7 7 7 7 6 6 6 6 6 5 5 5 5 5 5 6 6 6 6 6 6 6 6 7 6 6 6 6 5 5 4 4
11 9 5 5 6 6 6 6 6 6 5 5 5 5 5 5 6 5 6 6 6 6 6 6 5 5 5 5 5 5 5 5 5 5 5 5 5 5 5 6 6 6 6 5 5 5 4 4 4
9 8 5 3 4 5 5 5 6 6 5 5 5 5 5 5 5 5 4 5 5 5 6 5 5 5 5 5 5 5 4 4 5 5 5 6 5 4 4 5 5 4 4 5 4 4 4 4 3
7 7 4 2 3 4 4 5 6 7 5 5 5 5 5 5 4 4 4 4 4 4 5 5 6 5 5 5 5 5 5 5 5 5 6 6 6 5 4 4 4 4 3 3 3 4 4 3 3
4 4 2 1 3 3 4 5 5 6 6 6 5 5 4 4 4 4 4 4 4 4 4 5 5 5 5 5 5 5 5 5 5 5 5 5 6 4 4 4 4 3 3 3 3 3 3 2 2
3 3 1 2 2 3 4 5 5 6 5 5 5 4 4 4 4 4 4 4 4 4 4 5 5 4 4 4 5 5 5 6 5 5 5 5 5 4 4 4 4 4 3 2 3 3 2 1 1
2 2 1 1 2 3 4 5 4 4 5 5 4 4 4 4 5 5 4 4 4 4 4 5 5 5 5 5 6 6 6 6 5 5 5 5 4 4 3 4 4 4 3 3 3 3 2 2 2
3 2 0 1 3 3 4 4 5 5 5 5 5 4 5 5 5 5 4 4 5 5 5 5 5 5 6 7 7 7 7 7 6 5 5 4 4 3 3 4 4 4 4 3 3 3 2 3 2
4 2 1 2 3 3 3 3 4 5 6 6 6 6 6 6 6 5 6 5 5 5 6 6 6 7 7 7 7 6 7 7 6 6 5 4 4 4 3 4 5 5 4 3 4 3 3 3 2
6 3 2 3 3 3 3 3 4 5 5 6 7 8 7 7 6 5 6 6 6 6 6 7 7 7 7 7 7 7 7 8 7 6 6 5 4 4 4 4 4 4 4 4 4 4 4 4 3
6 4 3 3 3 4 4 3 5 5 5 6 6 7 8 8 8 7 7 7 7 7 7 8 8 8 8 7 7 7 8 8 8 7 7 6 5 4 5 5 5 4 4 4 4 4 4 4 4
7 6 5 5 4 4 5 4 4 5 5 6 6 6 7 7 8 8 7 7 7 7 7 8 9 9 8 8 8 8 9 9 9 8 8 8 7 6 5 6 6 5 5 5 5 5 5 5 5
7 6 7 6 6 5 5 5 5 5 5 6 6 6 7 7 8 8 8 8 7 7 7 8 10 9 8 8 8 8 8 9 10 10 9 8 8 8 7 7 7 6 6 6 6 6 5 4 4
9 9 9 8 8 6 5 6 6 7 6 7 7 7 7 7 8 8 8 8 8 8 7 9 10 10 9 9 8 8 8 9 9 9 9 8 8 8 7 8 8 7 7 6 6 6 5 5 4
14 12 10 8 10 8 7 7 7 8 8 8 8 8 8 7 8 7 8 8 8 8 8 9 9 10 10 9 9 9 9 8 8 9 9 9 8 8 8 8 8 8 7 7 7 6 6 6 5
15 13 11 11 11 11 10 10 9 9 8 9 9 9 8 8 8 8 8 8 8 8 8 9 9 9 9 9 9 9 9 9 9 9 9 10 9 9 8 8 8 8 8 7 7 6 6 6 6
17 15 14 12 12 11 11 11 11 12 10 9 9 9 8 8 8 8 8 8 8 8 8 8 9 9 9 10 10 9 9 9 9 10 10 10 10 10 9 8 8 9 8 7 7 7 7 7 7
18 15 14 13 13 13 12 12 12 13 12 9 9 9 8 8 8 8 8 8 8 8 8 9 9 9 9 9 10 10 10 10 10 11 10 10 11 12 11 9 8 8 8 8 8 7 8 7 7
19 17 15 14 15 17 16 14 13 12 10 8 8 9 8 7 8 8 8 8 8 9 9 10 9 9 9 10 11 10 10 11 11 11 11 11 11 12 12 10 9 8 8 9 8 7 8 7 7
20 19 16 17 17 17 15 15 15 13 12 10 10 9 9 8 8 8 8 9 9 9 10 10 10 9 10 11 11 11 11 11 11 11 10 11 12 12 11 11 10 9 9 8 8 8 8 8 8
21 20 19 16 14 15 15 16 15 14 15 14 13 11 10 9 9 9 9 9 9 10 10 10 10 10 11 11 11 12 12 11 11 11 11 11 12 12 12 11 11 10 10 10 9 9 8 8 8
22 22 19 16 15 14 14 15 16 15 16 15 15 12 11 11 11 10 10 10 10 11 11 11 11 11 11 11 12 12 12 12 12 12 12 12 12 12 12 12 11 11 11 10 9 8 8 9 9
23 21 20 20 19 16 15 14 15 16 14 14 14 14 14 12 11 11 11 11 11 12 12 12 12 12 12 12 13 13 13 13 13 13 13 13 13 14 14 14 13 12 12 11 10 9 9 10 10
24 22 20 20 19 17 14 14 16 17 17 16 14 14 15 14 13 13 13 12 12 12 13 13 13 13 13 14 14 14 13 13 13 14 14 14 14 14 15 15 14 13 12 11 10 10 10 10 10
23 22 21 21 21 18 17 17 15 15 17 16 15 15 15 15 15 14 14 14 13 13 13 13 14 14 14 15 15 14 14 14 14 15 15 15 15 16 16 16 15 14 13 12 11 11 11 11 11

GEFSSGP_500_meanwind_246.txt.gz
Wind_Speed
15 15 15 15 16 15 15 16 16 15 14 15 14 13 12 11 11 11 12 11 12 12 11 11 10 10 10 9 9 8 8 8 9 8 7 7 6 6 6 6 6 6 6 6 6 6 6 6 5
15 14 14 15 16 15 16 16 14 13 13 14 13 12 11 10 10 11 11 11 11 11 10 10 10 9 9 9 8 8 8 8 8 8 7 6 6 6 6 6 6 6 6 5 5 5 5 6 6
14 14 14 14 15 16 16 15 14 13 13 13 12 11 10 10 11 11 10 10 11 10 10 9 9 9 9 9 8 8 8 8 7 7 7 6 6 6 6 6 5 5 5 5 5 5 6 6 5
11 13 14 14 15 16 16 15 14 13 12 12 11 10 9 10 10 10 10 10 10 10 9 9 9 8 8 8 8 8 8 8 7 7 7 6 6 6 5 5 5 4 5 5 5 5 5 5 5
10 12 14 14 14 16 16 15 14 13 11 11 11 10 9 9 10 9 10 9 9 9 9 8 8 7 7 7 8 8 7 8 7 7 7 6 5 4 4 4 4 4 4 4 4 5 4 4 5
9 11 13 13 14 14 14 14 13 12 11 11 10 9 9 9 9 9 9 9 9 9 8 8 7 7 7 7 8 7 7 7 7 7 6 5 4 4 4 4 3 3 4 4 4 4 4 4 4
9 10 11 12 13 13 13 12 12 12 11 11 10 9 9 9 9 8 8 9 8 8 8 8 8 7 7 7 7 7 7 7 6 6 6 5 4 4 3 3 3 3 3 4 4 4 4 4 4
8 9 9 10 11 12 12 12 11 11 10 10 9 8 8 8 8 8 8 8 8 8 8 8 8 7 7 7 6 7 7 6 6 6 6 5 5 5 3 3 3 3 3 3 3 3 4 3 3
7 8 9 9 10 11 12 11 11 10 10 9 9 8 8 8 8 8 7 7 7 7 7 7 7 7 7 6 6 7 7 6 6 6 5 5 5 5 4 4 3 2 2 3 3 3 3 2 2
6 7 7 7 8 9 10 10 10 10 10 9 8 8 8 8 8 7 7 7 7 7 7 7 7 7 7 6 7 8 8 8 7 6 5 4 4 3 2 2 2 2 2 2 2 2 2 1 1
4 6 7 9 9 9 9 9 10 10 10 10 9 8 8 7 7 7 7 7 7 7 7 7 7 7 7 7 7 7 7 7 7 5 5 4 3 3 3 2 2 2 2 2 2 1 1 1 1
5 6 7 8 10 9 8 9 10 10 10 10 9 8 7 7 7 8 8 8 8 7 7 7 8 8 8 8 8 8 8 7 7 6 5 5 4 4 3 3 3 2 2 2 2 1 0 0 1
4 4 6 8 9 9 9 9 9 10 10 10 9 9 8 7 7 7 7 7 7 7 8 9 8 8 9 8 8 8 8 7 7 6 6 6 5 4 4 3 2 2 2 1 1 1 0 1 1
4 3 4 6 7 8 7 8 9 9 9 10 10 9 9 8 8 8 8 8 8 8 9 9 9 8 9 9 9 9 8 8 7 6 6 6 5 4 4 4 3 3 3 3 2 1 1 1 2
6 4 2 4 5 6 6 6 7 9 9 10 10 10 9 9 8 8 8 8 8 8 9 10 10 9 9 9 9 9 8 8 7 6 6 5 5 4 4 4 4 4 4 3 2 2 1 2 2
7 5 3 3 3 4 5 5 6 7 8 9 10 10 10 9 8 8 8 8 8 8 9 10 10 10 10 10 9 8 8 8 7 7 6 5 5 4 4 3 4 4 4 3 3 3 2 2 3
8 6 5 3 2 2 3 4 5 6 7 8 9 9 10 9 8 8 9 8 8 8 9 9 9 10 10 10 9 8 8 7 7 7 7 6 6 5 5 4 4 4 4 3 3 3 3 2 2
9 7 6 3 2 1 2 3 4 5 7 7 7 8 8 8 8 8 8 8 8 8 8 9 9 10 10 10 10 9 8 7 7 7 6 6 6 5 5 4 4 4 4 3 3 3 3 2 2
10 9 7 5 3 2 3 3 4 5 6 7 7 7 7 8 8 8 8 8 8 8 8 8 8 9 9 9 9 9 8 8 7 7 7 6 6 6 5 5 5 4 3 3 3 3 3 3 3
12 11 9 7 5 4 4 4 5 5 5 5 6 7 7 7 7 7 7 7 8 8 8 8 8 8 8 8 8 8 8 7 8 7 7 7 7 7 7 6 5 4 3 3 3 3 3 4 4
14 13 11 9 7 7 7 6 5 4 5 5 6 5 6 7 7 6 6 7 7 7 7 7 7 8 8 8 8 8 8 8 7 7 8 8 8 8 7 7 7 5 4 4 4 4 4 4 4
17 14 13 11 12 10 9 7 5 4 4 5 6 6 6 6 6 6 6 6 6 6 7 7 7 7 7 8 8 8 7 7 8 8 8 8 8 8 8 7 7 6 4 4 4 5 5 4 3
18 16 14 13 13 12 11 9 6 5 5 5 6 5 5 5 5 5 5 6 6 6 7 7 6 7 7 7 8 8 7 7 8 8 8 8 8 9 8 8 7 5 4 5 5 5 4 4 4
20 19 17 17 17 16 12 12 9 7 5 5 6 6 6 5 5 5 5 6 6 6 6 7 7 7 7 7 8 8 8 8 8 8 9 9 9 9 9 9 7 6 5 5 5 5 5 5 4
22 21 21 21 20 16 13 14 11 8 6 6 6 6 6 6 6 5 5 5 6 7 7 7 7 7 7 8 8 8 8 9 9 9 10 10 9 9 9 9 8 7 6 6 4 4 5 6 6
24 23 23 22 19 17 15 14 11 9 8 9 8 8 8 8 6 5 5 5 6 7 8 8 7 7 8 8 8 9 9 9 9 9 10 10 9 9 9 8 8 8 8 7 6 6 7 6 6
24 24 23 22 20 17 15 12 11 11 11 10 9 9 10 10 9 7 6 6 6 7 7 8 8 8 8 9 9 9 10 10 10 10 11 11 10 10 9 9 9 9 9 9 9 8 7 7 7
24 23 23 22 20 19 16 14 13 12 11 11 11 10 10 10 9 8 8 8 8 8 8 8 9 9 9 10 10 10 11 11 11 11 11 12 11 10 10 9 9 9 9 8 8 7 7 7 7
24 24 24 23 21 19 17 15 13 13 11 11 11 10 10 10 9 9 9 9 9 9 9 9 10 10 10 11 11 11 12 12 12 12 12 12 12 11 11 11 10 10 9 8 7 7 8 8 8
24 25 24 24 23 21 19 17 15 14 13 12 13 13 12 11 10 10 10 10 10 9 9 10 10 11 11 12 12 12 13 14 14 14 13 13 13 13 12 12 12 12 10 9 9 9 9 9 9

GEFSSGP_500_meanwind_252.txt.gz
Wind_Speed
15 15 15 15 16 15 16 17 16 16 15 15 14 14 14 13 12 12 12 12 11 11 11 12 12 12 12 12 12 11 11 11 10 10 10 9 9 8 8 8 7 7 6 5 5 5 5 5 5
15 15 14 15 16 15 15 17 16 15 14 14 13 13 12 12 12 12 12 12 11 10 11 11 12 12 11 11 11 11 11 10 10 10 9 9 9 8 8 7 7 7 6 6 5 5 5 4 4
14 14 14 15 15 15 16 16 16 15 14 13 13 12 11 11 12 11 11 11 10 10 11 11 11 11 11 10 11 11 10 10 10 9 8 8 8 8 7 7 7 7 7 6 6 5 4 4 4
12 13 13 14 14 15 15 16 16 15 14 13 13 12 11 10 11 11 10 10 10 10 10 10 10 10 10 10 10 10 10 10 9 8 7 7 7 7 6 7 7 7 6 6 5 5 4 4 3
11 11 12 13 14 15 15 15 15 15 14 13 13 12 11 10 10 10 9 9 9 10 10 10 10 10 10 10 10 9 9 9 8 7 7 6 6 6 5 5 6 6 5 5 5 5 4 4 3
9 10 11 11 13 14 14 15 15 14 13 12 12 11 10 9 9 9 9 9 9 10 10 10 9 10 10 10 10 9 9 8 7 7 6 5 5 5 5 5 5 5 5 4 4 4 5 4 4
8 9 10 10 12 13 14 14 15 13 12 12 11 10 10 9 8 8 8 8 9 10 10 9 9 9 9 9 9 9 8 8 7 6 6 6 5 5 5 5 4 4 4 4 4 4 4 3 3
7 8 9 10 12 13 13 14 13 12 12 11 10 9 9 9 8 8 8 8 9 9 9 9 9 8 9 9 9 9 8 8 7 6 6 5 5 5 4 4 4 4 4 4 4 4 3 3 3
6 7 8 9 11 12 13 13 12 12 11 11 10 9 9 9 8 9 8 9 9 9 9 9 9 8 9 9 9 8 8 7 6 6 5 5 4 4 4 3 3 3 4 4 4 3 2 2 2
6 7 8 9 10 11 12 12 12 12 12 11 10 9 9 9 9 9 9 9 9 9 9 9 9 9 8 8 9 8 7 6 6 5 4 4 4 3 2 3 2 3 3 3 3 2 2 1 2
5 6 8 9 10 11 11 11 12 12 11 11 10 10 9 9 8 9 8 9 9 9 9 9 9 8 8 9 9 8 7 7 5 5 3 4 4 3 2 2 2 2 3 2 2 2 1 1 1
3 5 6 8 9 10 11 11 11 11 11 11 11 9 9 9 8 8 8 8 8 8 9 9 9 9 8 9 9 8 8 7 7 5 3 3 4 4 3 3 2 2 2 2 2 1 1 1 1
2 4 5 6 8 9 10 10 10 10 10 10 10 10 9 9 8 8 8 8 8 8 8 9 9 9 9 8 8 8 7 7 7 6 4 4 5 5 4 4 2 2 1 1 2 2 2 1 1
1 2 4 6 8 9 10 10 10 10 10 10 9 10 10 10 9 8 8 8 8 9 9 9 9 9 9 9 9 8 8 7 7 7 5 4 5 6 5 4 3 2 2 1 1 2 2 2 1
2 1 3 4 7 8 9 10 9 9 10 10 9 9 10 10 9 9 9 9 9 9 9 9 9 8 9 9 9 9 8 8 7 7 6 5 5 5 5 4 3 3 2 2 2 1 2 2 2
4 2 1 3 5 7 8 9 9 9 9 9 9 9 9 9 9 9 9 9 9 8 8 9 9 9 9 10 11 10 9 8 7 7 6 6 6 6 5 4 4 4 4 3 3 3 3 3 3
6 4 2 2 4 5 5 6 7 7 7 8 8 8 8 8 8 9 8 8 8 8 8 8 8 9 9 10 11 11 10 9 8 8 8 7 7 7 6 4 4 4 4 4 4 4 3 3 3
8 6 4 2 2 3 3 4 5 6 6 6 7 7 7 7 8 8 8 8 7 7 7 7 8 8 9 10 11 11 11 10 9 9 8 7 7 7 6 5 5 4 4 4 4 4 4 4 4
11 8 6 3 2 1 1 2 3 4 4 4 5 5 6 6 7 7 8 7 7 7 6 7 7 7 8 9 10 11 10 10 9 9 8 8 8 7 6 6 6 5 5 5 5 5 5 5 5
13 11 9 7 5 3 2 1 0 2 3 4 4 4 5 5 6 6 7 7 7 6 6 6 6 7 8 8 9 10 9 9 9 9 9 9 9 8 7 6 6 6 5 6 6 6 5 5 5
15 13 11 10 8 6 5 4 3 1 3 3 3 4 4 4 5 5 5 6 6 6 6 7 7 7 7 8 8 9 9 9 10 9 9 9 10 9 9 7 7 7 6 6 6 5 4 4 5
17 15 14 12 11 9 8 6 5 4 3 2 2 3 3 4 4 4 4 5 5 6 6 7 7 7 7 7 8 8 9 9 10 10 10 10 10 10 10 8 8 7 7 7 6 6 5 6 6
18 17 16 16 14 11 9 8 6 5 4 2 2 2 3 4 4 4 4 4 5 6 6 7 7 7 7 7 7 8 9 9 10 11 11 12 11 12 11 9 8 8 8 8 7 7 6 6 7
21 19 18 18 17 15 12 11 8 7 5 4 4 4 4 4 4 4 4 4 5 6 6 7 7 7 7 7 8 8 9 10 10 12 12 13 13 12 11 10 9 8 8 8 8 7 7 7 7
23 22 21 20 19 16 14 14 10 8 7 6 6 6 6 5 5 4 4 4 4 5 6 7 7 7 7 7 8 9 9 10 11 12 12 13 13 13 12 11 10 9 9 9 9 8 8 8 8
23 23 23 22 20 17 17 16 12 10 9 9 8 6 6 6 6 5 5 5 5 6 6 6 7 7 8 8 8 9 9 10 11 12 13 13 14 13 13 12 11 11 11 11 10 10 9 9 9
24 24 24 24 22 20 19 17 14 13 11 9 8 7 7 7 7 6 5 5 6 6 6 6 7 8 8 8 9 9 10 11 11 12 13 14 14 14 14 13 12 11 11 11 11 11 11 10 10
24 24 24 24 23 22 20 18 16 14 12 10 10 9 8 8 7 6 6 6 6 7 7 7 8 9 9 9 10 10 11 11 12 13 14 15 15 14 14 14 13 12 12 12 12 11 11 10 10
25 25 24 23 22 22 21 19 16 15 14 13 11 10 9 8 8 8 7 7 7 7 8 8 9 10 10 10 11 11 12 12 13 14 15 15 16 15 15 14 14 13 13 13 12 11 11 11 11
26 25 25 24 23 22 21 19 17 16 15 14 13 11 10 9 10 10 9 8 8 8 9 9 10 11 11 12 12 13 12 13 14 15 16 15 16 16 16 16 15 14 14 13 13 12 12 12 11

GEFSSGP_500_meanwind_258.txt.gz
Wind_Speed
15 15 14 14 14 13 13 14 14 13 14 14 14 14 13 12 12 11 11 10 9 10 10 10 10 10 10 9 10 11 11 11 10 10 10 10 9 9 9 9 8 8 8 7 7 7 7 7 7
15 15 14 14 14 12 13 13 13 14 13 13 13 13 13 12 12 11 11 10 9 9 9 9 9 9 9 9 10 10 10 10 10 9 9 9 9 8 9 8 8 8 7 7 6 6 6 6 6
14 14 13 13 13 12 13 13 13 13 13 13 12 13 12 12 12 11 11 10 10 9 9 9 8 8 8 9 9 9 9 9 9 9 8 8 8 8 8 7 7 7 7 6 6 6 6 6 5
13 13 13 13 12 12 13 13 12 13 12 12 12 12 12 11 10 10 10 10 10 9 8 8 8 8 8 8 9 9 8 8 8 8 8 7 7 7 7 7 7 7 6 5 6 6 5 5 5
12 13 13 12 11 12 12 12 12 12 11 11 12 12 11 11 10 10 10 10 9 9 8 8 7 8 8 7 8 8 7 7 7 7 7 7 7 7 6 6 6 6 5 5 5 5 6 6 5
12 12 11 10 10 11 12 12 11 12 11 11 11 11 10 10 10 10 10 9 9 8 8 7 7 7 7 8 7 7 7 6 7 7 7 6 6 6 6 5 5 5 5 5 5 5 5 5 5
11 11 10 10 10 11 11 11 11 12 11 11 11 10 10 10 9 9 9 9 8 8 8 7 7 7 7 7 7 7 6 6 6 6 6 5 6 5 5 5 5 5 4 4 4 5 5 5 5
9 10 9 9 9 10 11 11 11 11 11 11 11 10 9 10 9 9 9 9 9 8 7 7 7 7 7 7 7 7 6 6 5 5 5 5 4 4 4 4 4 5 4 4 4 4 4 5 5
9 9 7 8 9 9 10 10 11 11 11 11 11 10 10 9 9 9 9 9 9 8 8 7 7 8 7 7 7 6 6 5 4 4 4 4 4 4 4 3 4 4 3 4 4 4 4 4 4
8 7 6 7 8 9 9 10 10 10 11 11 10 10 10 10 10 9 9 9 8 8 8 7 7 8 8 7 7 6 5 5 4 4 3 3 3 3 3 3 3 3 3 4 4 4 4 4 3
6 6 6 7 7 8 9 9 10 10 10 10 10 10 10 10 9 9 8 8 7 7 8 7 7 8 8 8 7 6 5 4 4 3 3 3 3 2 2 2 2 3 3 3 3 3 4 3 3
5 6 6 7 7 8 8 9 9 9 9 10 10 10 9 9 9 9 8 8 7 7 8 8 8 8 8 8 7 6 5 4 3 3 2 3 3 3 2 2 2 2 2 2 2 2 3 2 2
4 5 6 7 7 8 8 9 9 9 9 10 10 9 9 9 9 8 8 8 8 8 8 8 8 8 8 8 8 8 6 4 3 2 2 2 2 2 2 2 1 1 1 1 2 2 2 2 2
4 4 5 6 6 6 7 8 9 9 9 10 10 9 8 8 8 8 8 8 7 8 8 8 8 9 9 9 9 9 8 5 5 4 4 3 2 1 1 1 1 1 1 1 1 1 2 2 2
3 3 3 4 4 5 6 7 7 7 8 8 9 8 8 7 7 7 7 7 7 7 8 8 8 9 10 10 11 10 9 7 7 6 6 5 4 3 2 2 1 1 0 1 0 1 2 2 2
2 2 2 2 3 4 5 6 6 6 7 8 8 7 7 6 6 7 7 7 7 7 8 8 9 9 10 10 10 10 9 9 9 8 7 6 5 5 4 3 2 1 1 1 2 1 2 3 3
3 3 2 2 2 2 4 4 5 5 6 7 7 7 7 6 6 6 7 7 7 6 7 7 8 9 9 10 10 10 10 10 10 9 8 8 7 6 5 4 3 2 2 2 3 2 2 2 3
5 5 4 2 2 2 3 3 3 4 5 6 6 6 6 6 6 6 6 6 6 6 6 7 8 8 9 9 9 10 10 11 11 10 9 9 8 7 6 5 4 4 3 3 3 3 3 3 4
8 7 5 4 3 1 1 1 2 2 4 5 4 5 5 5 6 6 6 6 6 6 6 7 7 8 8 9 9 9 10 10 10 10 10 10 9 8 6 6 6 5 4 4 4 4 3 3 4
9 8 7 6 5 3 2 1 1 2 2 3 4 4 5 5 5 5 6 6 6 5 6 6 7 8 8 8 8 8 9 10 10 10 10 9 9 8 7 6 6 6 6 5 4 4 3 4 4
11 10 9 8 7 5 3 3 3 2 2 2 3 3 4 6 6 6 6 6 6 6 6 6 6 7 8 8 8 8 9 9 10 10 10 9 9 9 8 7 7 7 6 6 5 4 4 5 5
13 12 11 10 8 7 6 5 5 4 3 2 2 3 4 5 5 5 6 6 6 6 6 6 6 7 7 8 8 9 10 10 11 10 10 10 10 10 9 8 8 7 7 7 6 5 5 6 6
16 14 12 11 10 10 8 6 7 6 4 3 3 3 3 4 5 5 6 6 5 6 6 5 6 6 7 7 8 9 9 10 10 10 10 11 11 12 11 10 9 8 7 7 7 6 6 7 7
18 16 14 13 12 12 11 9 8 7 5 4 4 3 3 4 4 5 5 6 6 6 6 5 5 6 7 7 8 9 9 10 10 10 11 12 12 12 12 11 10 9 8 8 8 8 8 8 8
20 17 15 14 15 14 13 12 10 9 7 6 6 5 5 5 4 4 4 5 5 5 5 5 5 6 6 7 8 9 9 10 11 11 12 12 13 12 12 12 11 10 9 9 9 10 10 9 9
21 19 18 16 15 14 15 14 12 11 9 7 7 6 6 6 5 5 4 4 5 5 5 5 6 7 7 8 8 9 10 10 11 12 12 12 13 14 13 13 12 11 10 10 10 10 10 10 10
23 21 19 17 16 15 15 15 13 12 10 9 8 7 7 7 7 6 5 5 5 6 6 6 6 7 8 9 9 10 11 11 12 12 12 12 13 14 14 14 12 11 11 11 11 10 10 10 10
24 22 21 20 18 16 16 15 14 13 12 11 11 10 9 8 8 7 7 7 7 7 8 8 8 8 9 10 10 10 10 11 12 12 13 13 13 14 13 13 13 12 11 11 10 10 11 11 10
26 25 23 21 19 16 15 15 15 14 13 13 12 11 10 9 9 8 9 9 9 9 9 10 10 10 10 10 11 11 12 12 13 12 13 13 14 14 14 14 13 13 12 11 11 11 11 10 10
26 26 24 22 21 19 16 16 17 15 13 12 12 12 11 10 10 9 9 9 10 10 10 11 11 11 11 11 12 12 13 13 13 13 14 14 14 14 14 14 14 13 13 12 11 11 11 11 11

GEFSSGP_500_meanwind_264.txt.gz
Wind_Speed
15 15 14 15 16 12 9 8 7 8 7 7 7 7 7 7 7 7 8 9 9 8 8 9 8 8 7 7 7 7 7 6 7 7 7 7 6 6 5 5 5 6 6 6 6 6 6 6 5
15 14 16 16 12 8 8 7 7 7 7 7 7 7 8 8 7 8 8 9 9 9 8 8 8 7 7 7 7 7 6 6 6 6 6 6 6 5 5 5 5 5 5 6 6 6 6 5 5
15 15 16 12 9 8 8 8 7 6 6 7 7 7 8 8 8 8 8 8 9 8 8 8 8 7 7 7 6 6 6 5 5 5 5 5 5 5 5 5 5 5 5 5 5 5 5 5 5
15 17 15 10 8 9 8 8 7 6 6 6 7 6 7 8 8 8 8 8 8 8 8 8 7 7 7 6 6 5 5 5 5 4 4 5 5 4 4 4 4 4 4 4 5 5 5 4 4
17 16 11 8 8 8 8 8 8 6 6 6 7 6 7 8 8 8 8 8 8 8 8 8 7 7 7 6 6 5 5 5 5 4 4 4 4 4 4 4 4 4 4 4 4 4 4 4 4
16 12 8 8 8 8 8 8 8 8 7 6 7 6 6 7 7 7 8 8 8 8 8 7 7 7 7 6 6 5 5 5 4 4 3 4 3 3 4 4 4 4 4 3 3 4 4 4 4
12 8 7 7 8 8 8 8 8 7 7 7 7 7 7 7 7 7 8 8 8 8 8 8 7 7 7 6 6 5 5 4 4 3 3 3 3 2 3 3 3 4 4 3 4 5 5 5 4
10 7 6 6 6 7 8 8 8 8 7 7 7 7 7 7 8 8 8 8 8 8 9 8 7 6 6 6 6 5 5 4 4 3 3 2 2 2 1 2 2 3 3 3 4 5 5 5 4
9 7 5 5 6 6 7 7 8 8 8 8 8 8 8 8 9 9 9 8 8 8 9 8 8 7 7 6 6 6 5 5 4 3 3 3 3 2 1 1 2 2 2 3 3 4 4 3 3
6 4 4 5 6 6 6 7 8 7 7 8 8 8 8 8 9 9 9 9 9 9 9 9 9 8 8 7 7 6 6 5 4 4 4 3 3 2 2 2 2 1 1 2 2 2 2 2 2
5 4 4 5 6 5 5 7 8 8 7 8 9 9 8 8 8 9 10 10 9 9 10 10 10 10 9 9 8 7 6 6 5 5 4 4 3 3 1 1 1 1 1 1 1 2 1 1 2
5 4 5 5 5 6 6 7 7 8 8 8 9 9 8 9 9 9 10 10 10 10 10 11 11 11 11 10 9 8 7 7 6 5 4 4 4 3 1 0 0 1 1 2 1 1 0 0 0
4 3 4 5 5 6 6 7 7 8 7 8 9 9 10 9 9 10 10 10 10 11 11 11 11 11 11 11 10 9 8 7 6 6 6 5 4 2 1 1 0 0 0 1 1 1 1 1 1
3 2 4 4 5 5 5 6 7 7 8 8 9 9 10 10 10 10 10 11 11 11 11 11 11 11 11 11 10 10 9 8 7 7 7 6 5 3 3 2 1 1 0 0 1 1 1 1 1
3 2 4 4 5 5 6 6 7 8 8 8 9 10 10 10 11 10 10 10 10 11 11 11 11 11 11 10 10 9 9 9 8 7 7 6 5 4 3 4 3 2 1 1 1 1 1 2 2
3 1 2 3 4 4 5 6 7 7 7 8 8 9 10 10 11 11 10 10 10 11 11 10 10 11 11 11 10 9 9 9 10 9 8 7 6 5 5 5 5 4 3 2 2 2 2 2 2
1 0 1 2 4 4 4 6 7 6 6 7 8 8 9 10 11 11 11 10 10 10 10 10 11 11 11 11 11 10 10 9 10 10 10 9 9 7 6 6 5 4 4 3 3 3 3 3 3
2 2 2 2 2 4 4 6 7 6 6 7 8 8 8 9 10 11 11 11 11 10 10 10 10 10 11 11 11 10 11 10 10 11 11 10 10 8 7 7 6 5 5 5 4 4 4 4 4
6 5 5 4 2 3 5 5 6 6 5 6 7 7 8 8 8 9 10 10 10 10 10 10 10 10 10 10 11 11 11 11 11 11 12 11 10 9 8 8 7 6 6 6 5 5 5 5 5
9 8 6 5 3 3 5 5 5 6 6 5 6 7 7 7 8 8 9 9 9 10 10 9 10 9 10 10 11 12 12 12 12 12 11 11 10 10 9 9 8 7 7 7 6 6 6 5 5
11 9 8 7 6 6 6 7 6 7 7 6 6 6 7 7 7 7 8 8 8 8 9 9 10 10 10 10 11 11 12 12 13 13 13 12 11 11 10 10 9 8 7 7 7 6 6 6 5
12 10 11 9 7 6 6 8 9 9 8 7 6 6 7 7 7 7 7 7 7 8 8 10 10 10 10 10 10 11 11 12 13 13 13 12 11 12 12 11 10 9 8 7 7 7 7 7 7
15 12 11 10 8 8 8 9 10 11 10 8 8 7 8 7 7 7 7 7 7 7 8 9 9 9 9 9 10 10 11 11 12 13 13 13 12 12 12 12 11 10 9 8 8 8 7 7 7
17 14 13 12 11 12 11 10 12 13 11 9 9 8 8 8 7 7 6 6 7 8 8 9 9 9 9 9 10 10 11 11 12 13 13 13 13 13 13 12 12 11 10 9 8 8 8 8 8
19 16 15 14 13 12 10 11 13 13 12 11 11 10 8 8 7 7 6 6 6 8 9 9 9 9 9 9 10 10 11 11 12 13 13 13 13 13 13 13 12 11 11 10 9 9 9 10 10
20 17 16 13 11 11 10 12 12 13 13 12 12 11 9 8 7 7 6 7 7 8 9 9 9 9 9 10 10 10 11 11 12 12 13 14 14 14 14 14 13 13 12 11 10 10 11 11 11
20 19 17 15 13 14 13 13 14 16 13 13 14 12 12 10 9 8 7 7 8 8 9 10 9 9 10 10 11 11 11 11 13 13 14 14 14 15 15 14 14 14 13 13 12 12 12 12 12
21 20 18 19 18 17 14 14 15 16 16 14 14 13 13 11 10 9 8 7 8 8 9 10 10 10 11 11 11 11 11 11 13 14 15 15 15 15 16 15 14 14 14 14 14 14 14 14 13
22 21 21 20 19 17 15 17 17 17 18 16 14 13 14 12 11 10 9 9 9 9 10 11 10 11 11 11 11 12 12 13 13 14 15 16 16 16 16 16 16 15 15 15 15 14 14 14 14
23 23 21 22 22 19 17 17 18 18 18 18 17 17 16 14 13 13 12 11 11 11 11 11 11 11 11 12 12 12 13 14 14 15 16 16 16 16 16 16 16 16 16 15 15 15 15 15 14

GEFSSGP_500_meanwind_270.txt.gz
Wind_Speed
14 14 13 14 16 15 15 15 15 14 12 13 13 12 12 11 12 11 11 10 11 11 10 9 8 8 8 7 7 7 7 7 7 7 6 6 6 6 5 6 7 7 7 7 7 7 7 7 8
13 13 12 13 15 15 15 15 14 13 12 12 12 12 11 10 10 10 10 11 11 10 9 8 8 8 7 7 7 6 6 6 6 6 6 6 6 6 5 5 6 6 6 6 6 6 7 7 7
13 13 13 14 14 14 15 15 14 13 12 11 11 11 10 10 10 10 10 11 11 10 9 8 8 8 8 7 7 6 6 6 6 5 6 6 6 5 5 6 6 6 6 6 6 6 6 6 6
12 13 14 15 14 15 15 15 14 13 12 11 11 11 10 10 10 10 11 10 10 10 9 8 8 8 8 7 7 6 6 6 5 5 5 6 6 5 5 5 5 5 5 5 5 6 5 6 6
11 13 14 14 14 14 15 15 14 13 13 12 12 11 10 11 11 11 11 11 11 10 9 9 8 8 7 7 6 6 5 5 5 5 5 6 6 5 5 5 4 4 4 5 5 6 6 6 6
11 12 14 13 13 13 15 15 14 13 13 13 12 12 11 12 11 11 12 12 11 10 10 9 9 8 7 7 6 5 5 4 4 4 4 5 5 5 5 4 4 4 4 4 5 5 5 5 5
7 10 12 12 12 12 14 14 13 13 13 13 12 12 12 12 12 12 12 12 11 11 10 9 9 8 7 7 6 5 5 5 4 4 4 4 4 4 4 4 4 3 4 4 5 5 4 4 4
8 9 11 12 12 13 14 14 13 13 13 13 13 13 12 13 12 12 11 11 11 11 10 9 9 8 8 7 7 6 6 6 5 5 4 4 4 3 4 3 3 3 3 3 4 5 4 3 3
8 10 10 11 12 13 14 13 13 13 13 13 13 13 12 12 12 12 11 11 10 10 11 10 9 9 8 7 7 7 6 6 6 5 4 4 3 3 3 3 3 3 3 3 4 4 4 3 3
8 9 10 11 11 13 13 12 13 13 14 14 14 13 12 13 13 12 12 11 10 10 10 11 10 9 9 8 8 7 7 6 6 5 5 4 3 2 2 2 2 3 3 3 3 3 3 3 2
6 7 8 10 11 12 12 12 13 12 13 14 14 13 13 13 13 13 12 12 11 11 11 11 10 10 11 10 9 8 8 7 6 5 5 5 4 2 2 1 1 2 3 3 3 3 3 3 2
4 5 7 9 10 11 12 12 12 12 12 13 14 14 14 13 13 13 13 13 12 12 12 11 10 11 11 10 10 9 8 7 7 6 5 5 4 3 2 1 1 2 2 2 2 3 2 2 2
5 6 7 8 10 11 11 11 11 11 12 13 13 13 13 13 13 13 14 13 12 12 12 11 11 10 11 11 10 9 8 8 8 7 6 6 5 4 3 2 1 2 2 1 2 2 2 2 2
5 5 6 7 9 11 11 11 10 11 12 12 12 12 12 13 13 13 13 13 13 13 13 12 11 11 11 11 11 10 9 8 8 7 6 6 5 4 3 2 2 1 1 1 1 1 2 2 2
5 3 4 6 8 10 10 9 10 10 11 12 12 11 12 13 13 13 14 13 13 13 12 12 11 10 10 11 11 10 9 9 8 7 7 6 5 4 3 3 2 1 0 1 0 0 1 1 1
5 4 5 6 8 9 8 8 9 10 10 11 12 12 12 12 12 13 14 14 13 12 12 12 11 10 10 10 10 10 10 9 8 8 7 7 6 5 4 2 2 2 1 0 1 1 1 1 2
6 6 5 5 7 8 7 8 9 9 10 10 11 11 12 12 12 12 12 12 12 12 12 12 11 10 10 10 9 9 9 10 8 7 7 7 6 5 5 3 2 2 1 1 1 2 1 1 2
6 6 5 4 5 6 6 7 8 9 10 10 10 10 11 11 12 12 11 11 11 11 12 12 11 10 9 10 10 10 9 9 9 7 7 6 6 6 5 4 4 2 2 1 1 1 2 2 2
8 6 4 2 3 4 5 5 7 8 8 9 9 10 11 11 11 11 11 11 11 11 11 12 12 11 11 10 10 10 10 9 9 8 7 8 7 7 6 5 4 4 3 2 2 2 3 3 3
9 7 5 3 0 2 3 4 5 7 8 8 9 9 10 10 11 11 12 11 10 11 11 11 11 11 11 11 11 10 10 9 9 9 9 9 8 7 6 6 5 4 4 3 3 3 3 3 3
12 9 6 4 4 2 1 3 3 4 5 6 7 8 8 9 10 10 10 10 10 10 10 11 11 10 10 10 10 10 10 10 10 10 9 9 9 8 8 7 6 5 4 4 4 3 3 3 4
13 11 7 7 6 5 3 3 2 2 3 4 5 6 6 7 8 8 8 8 8 9 9 10 10 10 10 10 10 10 10 10 10 10 10 10 9 9 9 8 8 7 6 5 4 4 4 4 5
14 13 11 9 9 8 7 6 4 3 4 4 5 5 6 7 6 6 7 6 7 7 8 9 9 9 9 9 9 9 10 10 10 10 11 11 10 10 9 9 8 8 7 6 5 5 5 6 7
16 15 14 13 13 11 9 8 5 4 4 4 3 3 4 5 5 5 5 4 5 6 7 8 8 9 9 9 9 9 8 9 9 9 10 10 10 10 10 10 9 9 9 7 7 7 7 7 8
20 18 17 17 16 14 12 10 7 5 5 4 4 3 4 4 5 5 5 4 4 5 6 7 7 7 8 8 9 8 8 9 9 9 9 10 10 10 10 10 10 10 10 9 8 8 8 8 9
21 21 20 19 17 15 14 13 9 7 5 5 5 5 5 5 5 4 4 3 3 4 6 6 6 6 6 7 7 7 8 8 8 9 9 9 10 10 10 11 10 10 10 9 9 9 9 10 10
22 22 21 20 18 17 16 14 12 10 8 8 7 7 7 5 4 4 5 4 4 4 6 5 7 6 6 7 7 6 7 8 8 9 9 10 10 10 10 11 11 11 10 10 10 10 10 11 11
23 23 23 22 20 19 18 16 14 12 10 9 8 8 8 7 6 5 5 5 5 5 6 7 7 7 7 7 7 7 7 8 8 9 9 10 10 11 11 11 11 11 11 11 11 11 12 12 12
25 26 25 23 22 21 20 18 15 13 12 11 9 8 8 8 6 7 7 7 7 7 7 7 8 8 8 8 8 7 8 8 9 9 10 10 11 11 11 11 11 11 12 12 12 12 13 13 12
26 26 26 25 24 24 23 20 16 14 14 13 11 10 10 10 9 9 9 8 8 8 8 9 9 9 9 9 9 9 9 9 10 10 10 11 12 12 12 12 12 12 12 13 13 13 13 13 13